| time (UTC) | temp C | wind direction | speed KPH | gust KPH | rain 1hr cm | rain 24hr cm | rain mn cm | humidity % | barometer mb |
| 20260902203719 | 15 | 210 | 3.2 | 3.2 | 0.00 | 0.00 | 0.00 | 100 | 906.0 |
| 20260902203510 | 15 | 220 | 3.2 | 4.8 | 0.00 | 0.00 | 0.00 | 100 | 905.9 |
| 20260902203407 | 15 | 225 | 3.2 | 4.8 | 0.00 | 0.00 | 0.00 | 100 | 906.0 |
| 20260902203301 | 15 | 219 | 3.2 | 4.8 | 0.00 | 0.00 | 0.00 | 100 | 906.0 |
| 20260902203052 | 15 | 211 | 3.2 | 4.8 | 0.00 | 0.00 | 0.00 | 100 | 905.9 |
| 20260902202843 | 15 | 210 | 3.2 | 4.8 | 0.00 | 0.00 | 0.00 | 100 | 906.0 |
| 20260902202634 | 15 | 208 | 3.2 | 6.4 | 0.00 | 0.00 | 0.00 | 100 | 906.0 |
| 20260902202436 | 15 | 209 | 3.2 | 6.4 | 0.00 | 0.00 | 0.00 | 100 | 905.9 |
| 20260902202333 | 15 | 209 | 3.2 | 6.4 | 0.00 | 0.00 | 0.00 | 100 | 906.0 |
| 20260902202227 | 15 | 211 | 3.2 | 6.4 | 0.00 | 0.00 | 0.00 | 100 | 906.0 |
| 20260902202018 | 15 | 210 | 3.2 | 6.4 | 0.00 | 0.00 | 0.00 | 100 | 906.0 |
| 20260902201810 | 15 | 208 | 3.2 | 6.4 | 0.00 | 0.00 | 0.00 | 100 | 906.0 |
| 20260902201601 | 15 | 200 | 4.8 | 6.4 | 0.00 | 0.00 | 0.00 | 100 | 906.0 |
| 20260902201352 | 15 | 191 | 4.8 | 6.4 | 0.00 | 0.00 | 0.00 | 100 | 905.9 |
| 20260902201249 | 15 | 192 | 4.8 | 6.4 | 0.00 | 0.00 | 0.00 | 100 | 906.1 |
| 20260902201143 | 15 | 188 | 4.8 | 6.4 | 0.00 | 0.00 | 0.00 | 100 | 906.1 |
| 20260902200934 | 15 | 189 | 4.8 | 6.4 | 0.00 | 0.00 | 0.00 | 100 | 906.0 |
| 20260902200747 | 15 | 190 | 4.8 | 6.4 | 0.00 | 0.00 | 0.00 | 100 | 906.0 |
| 20260902200736 | 15 | 190 | 4.8 | 6.4 | 0.00 | 0.00 | 0.00 | 100 | 905.9 |
| 20260902200527 | 15 | 190 | 4.8 | 6.4 | 0.00 | 0.00 | 0.00 | 100 | 906.0 |
| 20260902200319 | 15 | 194 | 4.8 | 6.4 | 0.00 | 0.00 | 0.00 | 100 | 906.1 |
| 20260902200216 | 15 | 193 | 4.8 | 6.4 | 0.00 | 0.00 | 0.00 | 100 | 906.0 |
| 20260902200109 | 15 | 192 | 4.8 | 6.4 | 0.00 | 0.00 | 0.00 | 100 | 905.9 |
| 20260902195901 | 15 | 200 | 3.2 | 6.4 | 0.00 | 0.00 | 0.00 | 100 | 906.0 |
| 20260902195647 | 15 | 211 | 3.2 | 4.8 | 0.00 | 0.00 | 0.00 | 100 | 906.1 |
| 20260902195439 | 15 | 210 | 3.2 | 4.8 | 0.00 | 0.00 | 0.00 | 100 | 906.1 |
| 20260902195230 | 15 | 211 | 3.2 | 4.8 | 0.00 | 0.00 | 0.00 | 100 | 906.0 |
| 20260902195127 | 15 | 228 | 3.2 | 6.4 | 0.00 | 0.00 | 0.00 | 100 | 906.0 |
| 20260902195031 | 15 | 234 | 3.2 | 6.4 | 0.00 | 0.00 | 0.00 | 100 | 906.1 |
| 20260902194823 | 15 | 233 | 3.2 | 6.4 | 0.00 | 0.00 | 0.00 | 100 | 906.2 |
| 20260902194614 | 15 | 228 | 3.2 | 6.4 | 0.00 | 0.00 | 0.00 | 100 | 906.2 |
| 20260902194405 | 15 | 227 | 3.2 | 6.4 | 0.00 | 0.00 | 0.00 | 100 | 906.2 |
| 20260902194157 | 15 | 218 | 3.2 | 6.4 | 0.00 | 0.00 | 0.00 | 100 | 906.1 |
| 20260902194054 | 15 | 212 | 3.2 | 6.4 | 0.00 | 0.00 | 0.00 | 100 | 906.0 |
| 20260902193947 | 15 | 215 | 3.2 | 4.8 | 0.00 | 0.00 | 0.00 | 100 | 906.0 |
| 20260902193739 | 15 | 213 | 3.2 | 6.4 | 0.00 | 0.00 | 0.00 | 100 | 906.0 |
| 20260902193530 | 15 | 211 | 3.2 | 6.4 | 0.00 | 0.00 | 0.00 | 100 | 906.1 |
| 20260902193332 | 15 | 220 | 3.2 | 6.4 | 0.00 | 0.00 | 0.00 | 100 | 906.1 |
| 20260902193123 | 15 | 212 | 3.2 | 4.8 | 0.00 | 0.00 | 0.00 | 100 | 906.1 |
| 20260902193020 | 15 | 210 | 3.2 | 4.8 | 0.00 | 0.00 | 0.00 | 100 | 906.2 |
| 20260902192925 | 15 | 210 | 3.2 | 4.8 | 0.00 | 0.00 | 0.00 | 100 | 906.2 |
| 20260902192914 | 15 | 210 | 3.2 | 4.8 | 0.00 | 0.00 | 0.00 | 100 | 906.1 |
| 20260902192705 | 15 | 210 | 3.2 | 4.8 | 0.00 | 0.00 | 0.00 | 100 | 906.1 |
| 20260902192457 | 15 | 214 | 3.2 | 4.8 | 0.00 | 0.00 | 0.00 | 100 | 906.1 |
| 20260902192248 | 15 | 214 | 3.2 | 3.2 | 0.00 | 0.00 | 0.00 | 100 | 906.3 |
| 20260902192039 | 15 | 212 | 3.2 | 4.8 | 0.00 | 0.00 | 0.00 | 100 | 906.1 |
| 20260902191936 | 15 | 213 | 1.6 | 4.8 | 0.00 | 0.00 | 0.00 | 100 | 906.2 |
| 20260902191830 | 15 | 221 | 1.6 | 3.2 | 0.00 | 0.00 | 0.00 | 100 | 906.2 |
| 20260902191643 | 15 | 219 | 1.6 | 3.2 | 0.00 | 0.00 | 0.00 | 100 | 906.2 |
| 20260902191632 | 15 | 219 | 1.6 | 3.2 | 0.00 | 0.00 | 0.00 | 100 | 906.2 |
| 20260902191423 | 15 | 227 | 1.6 | 4.8 | 0.00 | 0.00 | 0.00 | 100 | 906.2 |
| 20260902191215 | 15 | 230 | 3.2 | 4.8 | 0.00 | 0.00 | 0.00 | 100 | 906.2 |
| 20260902191006 | 15 | 228 | 3.2 | 4.8 | 0.00 | 0.00 | 0.00 | 100 | 906.1 |
| 20260902190903 | 15 | 230 | 3.2 | 4.8 | 0.00 | 0.00 | 0.00 | 100 | 906.2 |
| 20260902190752 | 15 | 227 | 3.2 | 4.8 | 0.00 | 0.00 | 0.00 | 100 | 906.3 |
| 20260902190544 | 15 | 219 | 1.6 | 4.8 | 0.00 | 0.00 | 0.00 | 100 | 906.3 |
| 20260902190335 | 15 | 223 | 1.6 | 4.8 | 0.00 | 0.00 | 0.00 | 100 | 906.2 |
| 20260902190137 | 15 | 251 | 1.6 | 6.4 | 0.00 | 0.00 | 0.00 | 100 | 906.2 |
| 20260902185929 | 15 | 208 | 3.2 | 6.4 | 0.00 | 0.00 | 0.00 | 100 | 906.2 |
| 20260902185825 | 15 | 209 | 1.6 | 4.8 | 0.00 | 0.00 | 0.00 | 100 | 906.1 |
| 20260902185719 | 15 | 212 | 3.2 | 4.8 | 0.00 | 0.00 | 0.00 | 100 | 906.2 |
| 20260902185511 | 15 | 239 | 1.6 | 4.8 | 0.00 | 0.00 | 0.00 | 100 | 906.2 |
| 20260902185306 | 15 | 286 | 1.6 | 4.8 | 0.00 | 0.00 | 0.00 | 100 | 906.4 |
| 20260902185053 | 15 | 340 | 1.6 | 3.2 | 0.00 | 0.00 | 0.00 | 100 | 906.3 |
| 20260902184845 | 15 | 349 | 1.6 | 3.2 | 0.00 | 0.00 | 0.00 | 100 | 906.3 |
| 20260902184741 | 15 | 334 | 1.6 | 1.6 | 0.00 | 0.00 | 0.00 | 100 | 906.3 |
| 20260902184635 | 15 | 322 | 1.6 | 1.6 | 0.00 | 0.00 | 0.00 | 100 | 906.4 |
| 20260902184437 | 15 | 323 | 0.0 | 1.6 | 0.00 | 0.00 | 0.00 | 100 | 906.3 |
| 20260902184229 | 15 | 316 | 1.6 | 3.2 | 0.00 | 0.00 | 0.00 | 100 | 906.4 |
| 20260902184020 | 15 | 296 | 1.6 | 3.2 | 0.00 | 0.00 | 0.00 | 100 | 906.4 |
| 20260902183823 | 15 | 243 | 0.0 | 3.2 | 0.00 | 0.00 | 0.00 | 100 | 906.3 |
| 20260902183811 | 15 | 243 | 0.0 | 3.2 | 0.00 | 0.00 | 0.00 | 100 | 906.5 |
| 20260902183710 | 15 | 204 | 0.0 | 3.2 | 0.00 | 0.00 | 0.00 | 100 | 906.5 |
| 20260902183600 | 15 | 167 | 0.0 | 1.6 | 0.00 | 0.00 | 0.00 | 100 | 906.4 |
| 20260902183352 | 15 | 0 | 0.0 | 1.6 | 0.00 | 0.00 | 0.00 | 100 | 906.4 |
| 20260902183143 | 15 | 113 | 0.0 | 1.6 | 0.00 | 0.00 | 0.00 | 100 | 906.4 |
| 20260902182945 | 15 | 139 | 1.6 | 3.2 | 0.00 | 0.00 | 0.00 | 100 | 906.2 |
| 20260902182736 | 15 | 146 | 1.6 | 3.2 | 0.00 | 0.00 | 0.00 | 100 | 906.3 |
| 20260902182633 | 15 | 149 | 1.6 | 3.2 | 0.00 | 0.00 | 0.00 | 100 | 906.3 |
| 20260902182527 | 15 | 148 | 1.6 | 3.2 | 0.00 | 0.00 | 0.00 | 100 | 906.3 |
| 20260902182318 | 15 | 118 | 0.0 | 1.6 | 0.00 | 0.00 | 0.00 | 100 | 906.3 |
| 20260902182110 | 15 | 99 | 0.0 | 1.6 | 0.00 | 0.00 | 0.00 | 100 | 906.3 |
| 20260902181901 | 15 | 102 | 0.0 | 1.6 | 0.00 | 0.00 | 0.00 | 100 | 906.2 |
| 20260902181653 | 15 | 95 | 0.0 | 1.6 | 0.00 | 0.00 | 0.00 | 100 | 906.3 |
| 20260902181549 | 15 | 90 | 0.0 | 1.6 | 0.00 | 0.00 | 0.00 | 100 | 906.4 |
| 20260902181443 | 15 | 79 | 0.0 | 1.6 | 0.00 | 0.00 | 0.00 | 100 | 906.4 |
| 20260902181245 | 15 | 62 | 0.0 | 1.6 | 0.00 | 0.00 | 0.00 | 100 | 906.3 |
| 20260902181037 | 15 | 46 | 0.0 | 1.6 | 0.00 | 0.00 | 0.00 | 100 | 906.3 |
| 20260902180828 | 15 | 5 | 0.0 | 1.6 | 0.00 | 0.00 | 0.00 | 100 | 906.4 |
| 20260902180619 | 15 | 342 | 0.0 | 1.6 | 0.00 | 0.00 | 0.00 | 100 | 906.3 |
| 20260902180516 | 15 | 327 | 0.0 | 1.6 | 0.00 | 0.00 | 0.00 | 100 | 906.3 |
| 20260902180410 | 15 | 330 | 0.0 | 1.6 | 0.00 | 0.00 | 0.00 | 100 | 906.3 |
| 20260902180201 | 15 | 318 | 0.0 | 1.6 | 0.00 | 0.00 | 0.00 | 100 | 906.4 |
| 20260902180006 | 15 | 302 | 1.6 | 3.2 | 0.00 | 0.00 | 0.00 | 100 | 906.2 |
| 20260902175953 | 15 | 302 | 1.6 | 3.2 | 0.00 | 0.00 | 0.00 | 100 | 906.2 |
| 20260902175744 | 15 | 300 | 1.6 | 3.2 | 0.00 | 0.00 | 0.00 | 100 | 906.2 |
| 20260902175546 | 15 | 306 | 1.6 | 3.2 | 0.00 | 0.00 | 0.00 | 100 | 906.2 |
| 20260902175443 | 15 | 308 | 1.6 | 3.2 | 0.00 | 0.00 | 0.00 | 100 | 906.2 |
| 20260902175336 | 15 | 311 | 1.6 | 4.8 | 0.00 | 0.00 | 0.00 | 100 | 906.1 |
| 20260902175128 | 15 | 307 | 0.0 | 3.2 | 0.00 | 0.00 | 0.00 | 100 | 906.2 |
| 20260902174920 | 15 | 322 | 0.0 | 3.2 | 0.00 | 0.00 | 0.00 | 100 | 906.2 |
| 20260902174711 | 15 | 321 | 0.0 | 3.2 | 0.00 | 0.00 | 0.00 | 100 | 906.2 |
| 20260902174502 | 15 | 298 | 1.6 | 3.2 | 0.00 | 0.00 | 0.00 | 100 | 906.2 |
| 20260902174359 | 15 | 299 | 1.6 | 4.8 | 0.00 | 0.00 | 0.00 | 100 | 906.2 |
| 20260902174253 | 15 | 299 | 1.6 | 4.8 | 0.00 | 0.00 | 0.00 | 100 | 906.0 |
| 20260902174044 | 15 | 304 | 3.2 | 4.8 | 0.00 | 0.00 | 0.00 | 100 | 906.1 |
| 20260902173846 | 15 | 315 | 3.2 | 4.8 | 0.00 | 0.00 | 0.00 | 100 | 906.0 |
| 20260902173649 | 15 | 302 | 3.2 | 4.8 | 0.00 | 0.00 | 0.00 | 100 | 906.0 |
| 20260902173636 | 15 | 302 | 3.2 | 4.8 | 0.00 | 0.00 | 0.00 | 100 | 906.1 |
| 20260902173428 | 15 | 300 | 1.6 | 3.2 | 0.00 | 0.00 | 0.00 | 100 | 906.1 |
| 20260902173325 | 15 | 300 | 1.6 | 4.8 | 0.00 | 0.00 | 0.00 | 100 | 906.1 |
| 20260902173219 | 15 | 307 | 1.6 | 4.8 | 0.00 | 0.00 | 0.00 | 100 | 906.1 |
| 20260902173010 | 15 | 324 | 1.6 | 4.8 | 0.00 | 0.00 | 0.00 | 100 | 906.0 |
| 20260902172802 | 16 | 327 | 1.6 | 4.8 | 0.00 | 0.00 | 0.00 | 100 | 906.2 |
| 20260902172553 | 16 | 316 | 3.2 | 4.8 | 0.00 | 0.00 | 0.00 | 100 | 906.0 |
| 20260902172344 | 16 | 300 | 3.2 | 4.8 | 0.00 | 0.00 | 0.00 | 100 | 906.0 |
| 20260902172241 | 16 | 295 | 3.2 | 4.8 | 0.00 | 0.00 | 0.00 | 100 | 905.9 |
| 20260902172145 | 16 | 293 | 3.2 | 6.4 | 0.00 | 0.00 | 0.00 | 100 | 905.9 |
| 20260902171937 | 16 | 293 | 3.2 | 6.4 | 0.00 | 0.00 | 0.00 | 100 | 906.0 |
| 20260902171729 | 16 | 295 | 4.8 | 8.0 | 0.00 | 0.00 | 0.00 | 100 | 905.9 |
| 20260902171520 | 16 | 294 | 4.8 | 11.3 | 0.00 | 0.00 | 0.00 | 100 | 905.9 |
| 20260902171311 | 16 | 294 | 3.2 | 11.3 | 0.00 | 0.00 | 0.00 | 100 | 905.9 |
| 20260902171208 | 16 | 295 | 3.2 | 8.0 | 0.00 | 0.00 | 0.00 | 100 | 906.0 |
| 20260902171101 | 16 | 295 | 3.2 | 8.0 | 0.00 | 0.00 | 0.00 | 100 | 905.9 |
| 20260902170904 | 16 | 276 | 3.2 | 8.0 | 0.00 | 0.00 | 0.00 | 100 | 905.9 |
| 20260902170853 | 16 | 276 | 3.2 | 8.0 | 0.00 | 0.00 | 0.00 | 100 | 906.0 |
| 20260902170645 | 16 | 270 | 1.6 | 4.8 | 0.00 | 0.00 | 0.00 | 100 | 906.1 |
| 20260902170446 | 16 | 277 | 3.2 | 8.0 | 0.00 | 0.00 | 0.00 | 100 | 906.1 |
| 20260902170238 | 16 | 290 | 3.2 | 8.0 | 0.00 | 0.00 | 0.00 | 100 | 905.9 |
| 20260902170135 | 16 | 286 | 3.2 | 8.0 | 0.00 | 0.00 | 0.00 | 100 | 905.9 |
| 20260902170028 | 16 | 281 | 3.2 | 6.4 | 0.00 | 0.00 | 0.00 | 100 | 906.0 |
| 20260902165831 | 16 | 286 | 3.2 | 6.4 | 0.00 | 0.00 | 0.00 | 100 | 906.0 |
| 20260902165820 | 16 | 286 | 3.2 | 6.4 | 0.00 | 0.00 | 0.00 | 100 | 906.1 |
| 20260902165611 | 16 | 295 | 3.2 | 8.0 | 0.00 | 0.00 | 0.00 | 100 | 906.0 |
| 20260902165403 | 16 | 294 | 4.8 | 9.7 | 0.00 | 0.00 | 0.00 | 100 | 905.9 |
| 20260902165154 | 16 | 293 | 6.4 | 9.7 | 0.00 | 0.00 | 0.00 | 100 | 905.9 |
| 20260902165051 | 16 | 294 | 6.4 | 9.7 | 0.00 | 0.00 | 0.00 | 100 | 905.9 |
| 20260902164944 | 16 | 294 | 4.8 | 9.7 | 0.00 | 0.00 | 0.00 | 100 | 905.8 |
| 20260902164747 | 16 | 291 | 4.8 | 12.9 | 0.00 | 0.00 | 0.00 | 100 | 905.8 |
| 20260902164549 | 16 | 281 | 4.8 | 12.9 | 0.00 | 0.00 | 0.00 | 100 | 905.8 |
| 20260902164538 | 16 | 281 | 4.8 | 12.9 | 0.00 | 0.00 | 0.00 | 100 | 905.9 |
| 20260902164329 | 16 | 288 | 6.4 | 12.9 | 0.00 | 0.00 | 0.00 | 100 | 905.9 |
| 20260902164120 | 16 | 292 | 6.4 | 12.9 | 0.00 | 0.00 | 0.00 | 100 | 905.8 |
| 20260902164017 | 16 | 290 | 4.8 | 12.9 | 0.00 | 0.00 | 0.00 | 100 | 905.8 |
| 20260902163911 | 16 | 278 | 4.8 | 9.7 | 0.00 | 0.00 | 0.00 | 100 | 905.9 |
| 20260902163702 | 16 | 276 | 4.8 | 11.3 | 0.00 | 0.00 | 0.00 | 100 | 905.9 |
| 20260902163454 | 16 | 278 | 4.8 | 12.9 | 0.00 | 0.00 | 0.00 | 100 | 905.9 |
| 20260902163245 | 16 | 277 | 4.8 | 12.9 | 0.00 | 0.00 | 0.00 | 100 | 905.9 |
| 20260902163047 | 16 | 268 | 4.8 | 8.0 | 0.00 | 0.00 | 0.00 | 100 | 905.9 |
| 20260902162944 | 16 | 271 | 4.8 | 8.0 | 0.00 | 0.00 | 0.00 | 100 | 906.0 |
| 20260902162838 | 16 | 265 | 4.8 | 8.0 | 0.00 | 0.00 | 0.00 | 100 | 905.9 |
| 20260902162629 | 16 | 275 | 3.2 | 9.7 | 0.00 | 0.00 | 0.00 | 100 | 905.9 |
| 20260902162421 | 16 | 294 | 6.4 | 16.1 | 0.00 | 0.00 | 0.00 | 100 | 905.9 |
| 20260902162206 | 16 | 297 | 8.0 | 16.1 | 0.00 | 0.00 | 0.00 | 100 | 905.8 |
| 20260902161958 | 16 | 297 | 4.8 | 14.5 | 0.00 | 0.00 | 0.00 | 100 | 905.8 |
| 20260902161854 | 16 | 297 | 3.2 | 9.7 | 0.00 | 0.00 | 0.00 | 100 | 905.9 |
| 20260902161759 | 16 | 296 | 3.2 | 8.0 | 0.00 | 0.00 | 0.00 | 100 | 905.9 |
| 20260902161550 | 16 | 292 | 4.8 | 9.7 | 0.00 | 0.00 | 0.00 | 100 | 905.8 |
| 20260902161342 | 16 | 294 | 6.4 | 12.9 | 0.00 | 0.00 | 0.00 | 100 | 905.8 |
| 20260902161133 | 16 | 296 | 8.0 | 12.9 | 0.00 | 0.00 | 0.00 | 100 | 905.7 |
| 20260902160924 | 16 | 296 | 8.0 | 17.7 | 0.00 | 0.00 | 0.00 | 100 | 905.7 |
| 20260902160821 | 16 | 293 | 8.0 | 17.7 | 0.00 | 0.00 | 0.00 | 100 | 905.7 |
| 20260902160715 | 16 | 290 | 8.0 | 17.7 | 0.00 | 0.00 | 0.00 | 100 | 905.7 |
| 20260902160506 | 16 | 290 | 9.7 | 16.1 | 0.00 | 0.00 | 0.00 | 100 | 905.7 |
| 20260902160258 | 16 | 293 | 6.4 | 16.1 | 0.00 | 0.00 | 0.00 | 100 | 905.6 |
| 20260902160100 | 16 | 292 | 6.4 | 12.9 | 0.00 | 0.00 | 0.00 | 100 | 905.9 |
| 20260902155851 | 16 | 296 | 6.4 | 12.9 | 0.00 | 0.00 | 0.00 | 100 | 905.9 |
| 20260902155748 | 16 | 297 | 6.4 | 14.5 | 0.00 | 0.00 | 0.00 | 100 | 906.0 |
| 20260902155641 | 17 | 297 | 6.4 | 14.5 | 0.00 | 0.00 | 0.00 | 100 | 906.1 |
| 20260902155444 | 17 | 297 | 4.8 | 14.5 | 0.00 | 0.00 | 0.00 | 100 | 906.1 |
| 20260902155433 | 16 | 297 | 4.8 | 14.5 | 0.00 | 0.00 | 0.00 | 100 | 906.2 |
| 20260902155225 | 16 | 296 | 6.4 | 17.7 | 0.00 | 0.00 | 0.00 | 100 | 906.2 |
| 20260902155015 | 16 | 296 | 9.7 | 17.7 | 0.00 | 0.00 | 0.00 | 100 | 905.9 |
| 20260902154807 | 16 | 298 | 9.7 | 16.1 | 0.00 | 0.00 | 0.00 | 100 | 905.8 |
| 20260902154703 | 16 | 297 | 8.0 | 16.1 | 0.00 | 0.00 | 0.00 | 100 | 905.6 |
| 20260902154557 | 16 | 298 | 6.4 | 16.1 | 0.00 | 0.00 | 0.00 | 100 | 905.7 |
| 20260902154359 | 16 | 297 | 6.4 | 12.9 | 0.00 | 0.00 | 0.00 | 100 | 905.7 |
| 20260902154202 | 16 | 296 | 6.4 | 12.9 | 0.00 | 0.00 | 0.00 | 100 | 905.6 |
| 20260902154151 | 16 | 296 | 6.4 | 12.9 | 0.00 | 0.00 | 0.00 | 100 | 905.7 |
| 20260902153942 | 16 | 297 | 8.0 | 14.5 | 0.00 | 0.00 | 0.00 | 100 | 905.6 |
| 20260902153734 | 17 | 299 | 8.0 | 16.1 | 0.00 | 0.00 | 0.00 | 100 | 905.5 |
| 20260902153630 | 17 | 297 | 9.7 | 16.1 | 0.00 | 0.00 | 0.00 | 100 | 905.4 |
| 20260902153524 | 17 | 294 | 9.7 | 20.9 | 0.00 | 0.00 | 0.00 | 100 | 905.4 |
| 20260902153315 | 17 | 284 | 6.4 | 20.9 | 0.00 | 0.00 | 0.00 | 100 | 905.3 |
| 20260902153107 | 17 | 295 | 6.4 | 12.9 | 0.00 | 0.00 | 0.00 | 100 | 905.6 |
| 20260902152909 | 17 | 295 | 4.8 | 12.9 | 0.00 | 0.00 | 0.00 | 100 | 905.5 |
| 20260902152858 | 17 | 295 | 4.8 | 12.9 | 0.00 | 0.00 | 0.00 | 100 | 905.4 |
| 20260902152700 | 17 | 297 | 3.2 | 11.3 | 0.00 | 0.00 | 0.00 | 100 | 905.8 |
| 20260902152557 | 17 | 297 | 3.2 | 9.7 | 0.00 | 0.00 | 0.00 | 100 | 906.0 |
| 20260902152450 | 17 | 276 | 4.8 | 9.7 | 0.00 | 0.00 | 0.00 | 100 | 905.8 |
| 20260902152242 | 17 | 259 | 6.4 | 9.7 | 0.00 | 0.00 | 0.00 | 100 | 905.5 |
| 20260902152034 | 17 | 273 | 4.8 | 11.3 | 0.00 | 0.00 | 0.00 | 100 | 905.8 |
| 20260902151825 | 18 | 278 | 4.8 | 16.1 | 0.00 | 0.00 | 0.00 | 100 | 906.0 |
| 20260902151627 | 17 | 281 | 4.8 | 16.1 | 0.00 | 0.00 | 0.00 | 100 | 905.7 |
| 20260902151617 | 18 | 281 | 4.8 | 16.1 | 0.00 | 0.00 | 0.00 | 100 | 905.7 |
| 20260902151513 | 18 | 276 | 4.8 | 16.1 | 0.00 | 0.00 | 0.00 | 100 | 905.7 |
| 20260902151407 | 18 | 286 | 3.2 | 9.7 | 0.00 | 0.00 | 0.00 | 100 | 905.7 |
| 20260902151159 | 18 | 266 | 6.4 | 16.1 | 0.00 | 0.00 | 0.00 | 100 | 906.0 |
| 20260902151001 | 18 | 250 | 6.4 | 16.1 | 0.00 | 0.00 | 0.00 | 100 | 905.9 |
| 20260902150752 | 18 | 273 | 6.4 | 14.5 | 0.00 | 0.00 | 0.00 | 100 | 906.2 |
| 20260902150544 | 17 | 296 | 4.8 | 11.3 | 0.00 | 0.00 | 0.00 | 100 | 906.1 |
| 20260902150440 | 17 | 297 | 4.8 | 11.3 | 0.00 | 0.00 | 0.00 | 100 | 905.7 |
| 20260902150345 | 17 | 296 | 3.2 | 11.3 | 0.00 | 0.00 | 0.00 | 100 | 905.7 |
| 20260902150334 | 18 | 296 | 3.2 | 11.3 | 0.00 | 0.00 | 0.00 | 100 | 905.9 |
| 20260902150125 | 18 | 301 | 3.2 | 11.3 | 0.00 | 0.00 | 0.00 | 100 | 905.9 |
| 20260902145917 | 17 | 317 | 4.8 | 11.3 | 0.00 | 0.00 | 0.00 | 100 | 905.8 |
| 20260902145708 | 18 | 276 | 4.8 | 11.3 | 0.00 | 0.00 | 0.00 | 100 | 906.1 |
| 20260902145459 | 17 | 256 | 6.4 | 11.3 | 0.00 | 0.00 | 0.00 | 100 | 906.0 |
| 20260902145356 | 18 | 268 | 6.4 | 17.7 | 0.00 | 0.00 | 0.00 | 100 | 906.0 |
| 20260902145311 | 18 | 284 | 6.4 | 20.9 | 0.00 | 0.00 | 0.00 | 100 | 906.0 |
| 20260902145300 | 18 | 284 | 6.4 | 20.9 | 0.00 | 0.00 | 0.00 | 100 | 906.4 |
| 20260902145051 | 18 | 301 | 4.8 | 20.9 | 0.00 | 0.00 | 0.00 | 100 | 906.4 |
| 20260902144843 | 18 | 317 | 3.2 | 9.7 | 0.00 | 0.00 | 0.00 | 100 | 906.9 |
| 20260902144634 | 18 | 282 | 4.8 | 16.1 | 0.00 | 0.00 | 0.00 | 100 | 906.8 |
| 20260902144426 | 17 | 282 | 6.4 | 14.5 | 0.00 | 0.00 | 0.00 | 100 | 906.3 |
| 20260902144322 | 17 | 289 | 8.0 | 19.3 | 0.00 | 0.00 | 0.00 | 100 | 906.1 |
| 20260902144216 | 17 | 296 | 8.0 | 19.3 | 0.00 | 0.00 | 0.00 | 100 | 906.2 |
| 20260902144007 | 18 | 296 | 6.4 | 19.3 | 0.00 | 0.00 | 0.00 | 100 | 906.6 |
| 20260902143810 | 17 | 295 | 4.8 | 9.7 | 0.00 | 0.00 | 0.00 | 100 | 906.7 |
| 20260902143759 | 17 | 295 | 4.8 | 9.7 | 0.00 | 0.00 | 0.00 | 100 | 906.5 |
| 20260902143601 | 17 | 298 | 4.8 | 9.7 | 0.00 | 0.00 | 0.00 | 100 | 906.6 |
| 20260902143353 | 17 | 323 | 4.8 | 14.5 | 0.00 | 0.00 | 0.00 | 100 | 906.7 |
| 20260902143249 | 17 | 322 | 4.8 | 14.5 | 0.00 | 0.00 | 0.00 | 100 | 906.5 |
| 20260902143143 | 17 | 322 | 4.8 | 14.5 | 0.00 | 0.00 | 0.00 | 100 | 906.8 |
| 20260902142934 | 17 | 298 | 3.2 | 11.3 | 0.00 | 0.00 | 0.00 | 100 | 907.0 |
| 20260902142737 | 17 | 255 | 3.2 | 8.0 | 0.00 | 0.00 | 0.00 | 100 | 907.2 |
| 20260902142726 | 17 | 255 | 3.2 | 8.0 | 0.00 | 0.00 | 0.00 | 100 | 907.0 |
| 20260902142530 | 17 | 244 | 4.8 | 9.7 | 0.00 | 0.00 | 0.00 | 100 | 906.8 |
| 20260902142517 | 17 | 244 | 4.8 | 9.7 | 0.00 | 0.00 | 0.00 | 100 | 906.6 |
| 20260902142309 | 16 | 263 | 6.4 | 11.3 | 0.00 | 0.00 | 0.00 | 100 | 906.4 |
| 20260902142205 | 16 | 269 | 6.4 | 14.5 | 0.00 | 0.00 | 0.00 | 100 | 905.7 |
| 20260902142059 | 17 | 279 | 6.4 | 14.5 | 0.00 | 0.00 | 0.00 | 100 | 906.1 |
| 20260902141917 | 17 | 297 | 3.2 | 9.7 | 0.00 | 0.00 | 0.00 | 100 | 907.4 |
| 20260902141901 | 17 | 284 | 4.8 | 11.3 | 0.00 | 0.00 | 0.00 | 100 | 907.3 |
| 20260902141653 | 17 | 297 | 3.2 | 9.7 | 0.00 | 0.00 | 0.00 | 100 | 907.4 |
| 20260902141455 | 17 | 329 | 4.8 | 9.7 | 0.00 | 0.00 | 0.00 | 100 | 907.3 |
| 20260902141444 | 16 | 329 | 4.8 | 9.7 | 0.00 | 0.00 | 0.00 | 100 | 907.2 |
| 20260902141235 | 16 | 343 | 6.4 | 14.5 | 0.00 | 0.00 | 0.00 | 100 | 906.1 |
| 20260902141132 | 17 | 341 | 8.0 | 16.1 | 0.00 | 0.00 | 0.00 | 100 | 906.0 |
| 20260902141026 | 17 | 344 | 8.0 | 16.1 | 0.00 | 0.00 | 0.00 | 100 | 906.0 |
| 20260902140817 | 17 | 353 | 6.4 | 16.1 | 0.00 | 0.00 | 0.00 | 100 | 906.2 |
| 20260902140609 | 17 | 337 | 6.4 | 16.1 | 0.00 | 0.00 | 0.00 | 100 | 906.8 |
| 20260902140400 | 17 | 328 | 4.8 | 16.1 | 0.00 | 0.00 | 0.00 | 100 | 907.1 |
| 20260902140213 | 17 | 330 | 3.2 | 12.9 | 0.00 | 0.00 | 0.00 | 100 | 907.4 |
| 20260902140202 | 17 | 330 | 3.2 | 12.9 | 0.00 | 0.00 | 0.00 | 100 | 907.8 |
| 20260902135951 | 16 | 343 | 3.2 | 9.7 | 0.00 | 0.00 | 0.00 | 100 | 907.6 |
| 20260902135742 | 16 | 355 | 3.2 | 9.7 | 0.00 | 0.00 | 0.00 | 100 | 906.7 |
| 20260902135534 | 16 | 353 | 3.2 | 6.4 | 0.00 | 0.00 | 0.00 | 100 | 906.8 |
| 20260902135325 | 16 | 331 | 3.2 | 9.7 | 0.00 | 0.00 | 0.00 | 100 | 906.6 |
| 20260902135117 | 16 | 329 | 4.8 | 14.5 | 0.00 | 0.00 | 0.00 | 100 | 906.3 |
| 20260902135013 | 16 | 338 | 6.4 | 14.5 | 0.00 | 0.00 | 0.00 | 100 | 906.3 |
| 20260902134907 | 16 | 338 | 4.8 | 14.5 | 0.00 | 0.00 | 0.00 | 100 | 906.4 |
| 20260902134710 | 16 | 335 | 4.8 | 8.0 | 0.00 | 0.00 | 0.00 | 100 | 906.4 |
| 20260902134659 | 16 | 335 | 4.8 | 8.0 | 0.00 | 0.00 | 0.00 | 100 | 906.5 |
| 20260902134501 | 16 | 332 | 4.8 | 9.7 | 0.00 | 0.00 | 0.00 | 100 | 906.3 |
| 20260902134252 | 16 | 346 | 4.8 | 9.7 | 0.00 | 0.00 | 0.00 | 100 | 906.2 |
| 20260902134044 | 16 | 353 | 6.4 | 12.9 | 0.00 | 0.00 | 0.00 | 100 | 906.3 |
| 20260902133940 | 16 | 353 | 6.4 | 12.9 | 0.00 | 0.00 | 0.00 | 100 | 906.2 |
| 20260902133830 | 16 | 354 | 6.4 | 14.5 | 0.00 | 0.00 | 0.00 | 100 | 906.4 |
| 20260902133632 | 16 | 342 | 6.4 | 14.5 | 0.00 | 0.00 | 0.00 | 100 | 906.4 |
| 20260902133621 | 17 | 342 | 6.4 | 14.5 | 0.00 | 0.00 | 0.00 | 100 | 906.3 |
| 20260902133413 | 17 | 350 | 6.4 | 17.7 | 0.00 | 0.00 | 0.00 | 100 | 906.4 |
| 20260902133214 | 17 | 346 | 8.0 | 17.7 | 0.00 | 0.00 | 0.00 | 100 | 906.3 |
| 20260902133006 | 17 | 344 | 8.0 | 14.5 | 0.00 | 0.00 | 0.00 | 100 | 906.8 |
| 20260902132903 | 17 | 349 | 6.4 | 14.5 | 0.00 | 0.00 | 0.00 | 100 | 907.1 |
| 20260902132756 | 16 | 347 | 6.4 | 12.9 | 0.00 | 0.00 | 0.00 | 100 | 907.7 |
| 20260902132548 | 16 | 333 | 6.4 | 12.9 | 0.00 | 0.00 | 0.00 | 100 | 907.2 |
| 20260902132350 | 16 | 307 | 6.4 | 17.7 | 0.00 | 0.00 | 0.00 | 100 | 907.1 |
| 20260902132339 | 16 | 307 | 6.4 | 17.7 | 0.00 | 0.00 | 0.00 | 100 | 906.9 |
| 20260902132130 | 16 | 297 | 8.0 | 17.7 | 0.00 | 0.00 | 0.00 | 100 | 906.7 |
| 20260902131922 | 16 | 299 | 6.4 | 14.5 | 0.00 | 0.00 | 0.00 | 100 | 906.6 |
| 20260902131819 | 16 | 303 | 6.4 | 16.1 | 0.00 | 0.00 | 0.00 | 100 | 906.6 |
| 20260902131712 | 16 | 307 | 6.4 | 16.1 | 0.00 | 0.00 | 0.00 | 100 | 906.7 |
| 20260902131504 | 16 | 298 | 9.7 | 16.1 | 0.00 | 0.00 | 0.00 | 100 | 906.4 |
| 20260902131306 | 16 | 297 | 9.7 | 17.7 | 0.00 | 0.00 | 0.00 | 100 | 906.4 |
| 20260902131107 | 16 | 296 | 8.0 | 12.9 | 0.00 | 0.00 | 0.00 | 100 | 906.5 |
| 20260902131057 | 16 | 296 | 8.0 | 12.9 | 0.00 | 0.00 | 0.00 | 100 | 906.7 |
| 20260902130849 | 16 | 283 | 4.8 | 12.9 | 0.00 | 0.00 | 0.00 | 100 | 906.9 |
| 20260902130745 | 16 | 274 | 4.8 | 9.7 | 0.00 | 0.00 | 0.00 | 100 | 907.0 |
| 20260902130639 | 16 | 272 | 4.8 | 9.7 | 0.00 | 0.00 | 0.00 | 100 | 907.0 |
| 20260902130430 | 16 | 278 | 4.8 | 9.7 | 0.00 | 0.00 | 0.00 | 100 | 906.8 |
| 20260902130221 | 16 | 270 | 4.8 | 9.7 | 0.00 | 0.00 | 0.00 | 100 | 906.6 |
| 20260902130013 | 16 | 260 | 6.4 | 12.9 | 0.00 | 0.00 | 0.00 | 100 | 906.4 |
| 20260902125817 | 16 | 266 | 6.4 | 12.9 | 0.00 | 0.00 | 0.00 | 100 | 906.3 |
| 20260902125804 | 16 | 266 | 6.4 | 12.9 | 0.00 | 0.00 | 0.00 | 100 | 906.4 |
| 20260902125701 | 16 | 272 | 6.4 | 12.9 | 0.00 | 0.00 | 0.00 | 100 | 906.4 |
| 20260902125605 | 16 | 274 | 6.4 | 12.9 | 0.00 | 0.00 | 0.00 | 100 | 906.4 |
| 20260902125357 | 16 | 293 | 6.4 | 12.9 | 0.00 | 0.00 | 0.00 | 100 | 906.5 |
| 20260902125148 | 16 | 298 | 6.4 | 12.9 | 0.00 | 0.00 | 0.00 | 100 | 906.5 |
| 20260902124939 | 16 | 283 | 6.4 | 12.9 | 0.00 | 0.00 | 0.00 | 100 | 906.6 |
| 20260902124805 | 16 | 252 | 6.4 | 12.9 | 0.00 | 0.00 | 0.00 | 100 | 906.7 |
| 20260902124731 | 16 | 252 | 6.4 | 12.9 | 0.00 | 0.00 | 0.00 | 100 | 906.7 |
| 20260902124628 | 16 | 249 | 8.0 | 12.9 | 0.00 | 0.00 | 0.00 | 100 | 906.6 |
| 20260902124533 | 16 | 251 | 6.4 | 11.3 | 0.00 | 0.00 | 0.00 | 100 | 906.6 |
| 20260902124521 | 16 | 251 | 6.4 | 11.3 | 0.00 | 0.00 | 0.00 | 100 | 906.8 |
| 20260902124313 | 16 | 248 | 6.4 | 14.5 | 0.00 | 0.00 | 0.00 | 100 | 906.8 |
| 20260902124104 | 16 | 244 | 6.4 | 14.5 | 0.00 | 0.00 | 0.00 | 100 | 906.6 |
| 20260902123906 | 16 | 243 | 8.0 | 14.5 | 0.00 | 0.00 | 0.00 | 100 | 906.8 |
| 20260902123658 | 16 | 241 | 8.0 | 12.9 | 0.00 | 0.00 | 0.00 | 100 | 906.6 |
| 20260902123555 | 16 | 243 | 8.0 | 12.9 | 0.00 | 0.00 | 0.00 | 100 | 906.7 |
| 20260902123448 | 16 | 243 | 9.7 | 12.9 | 0.00 | 0.00 | 0.00 | 100 | 906.8 |
| 20260902123251 | 16 | 243 | 9.7 | 19.3 | 0.00 | 0.00 | 0.00 | 100 | 906.6 |
| 20260902123240 | 16 | 243 | 9.7 | 19.3 | 0.00 | 0.00 | 0.00 | 100 | 906.7 |
| 20260902123031 | 16 | 244 | 9.7 | 19.3 | 0.00 | 0.00 | 0.00 | 100 | 906.7 |
| 20260902122822 | 16 | 248 | 9.7 | 16.1 | 0.00 | 0.00 | 0.00 | 100 | 906.9 |
| 20260902122614 | 16 | 247 | 11.3 | 19.3 | 0.00 | 0.00 | 0.00 | 100 | 906.8 |
| 20260902122511 | 16 | 249 | 12.9 | 20.9 | 0.00 | 0.00 | 0.00 | 100 | 906.6 |
| 20260902122404 | 16 | 251 | 12.9 | 20.9 | 0.00 | 0.00 | 0.00 | 100 | 906.5 |
| 20260902122218 | 16 | 255 | 14.5 | 20.9 | 0.00 | 0.00 | 0.00 | 100 | 906.5 |
| 20260902122207 | 16 | 255 | 14.5 | 20.9 | 0.00 | 0.00 | 0.00 | 100 | 906.4 |
| 20260902121958 | 16 | 254 | 14.5 | 27.4 | 0.00 | 0.00 | 0.00 | 100 | 906.3 |
| 20260902121749 | 16 | 251 | 12.9 | 27.4 | 0.00 | 0.00 | 0.00 | 100 | 906.1 |
| 20260902121541 | 16 | 251 | 12.9 | 22.5 | 0.00 | 0.00 | 0.00 | 100 | 906.0 |
| 20260902121438 | 16 | 253 | 12.9 | 19.3 | 0.00 | 0.00 | 0.00 | 100 | 906.0 |
| 20260902121331 | 17 | 252 | 11.3 | 19.3 | 0.00 | 0.00 | 0.00 | 100 | 905.9 |
| 20260902121123 | 17 | 243 | 12.9 | 20.9 | 0.00 | 0.00 | 0.00 | 100 | 906.0 |
| 20260902120914 | 17 | 236 | 14.5 | 22.5 | 0.00 | 0.00 | 0.00 | 100 | 905.9 |
| 20260902120716 | 17 | 234 | 14.5 | 22.5 | 0.00 | 0.00 | 0.00 | 100 | 906.1 |
| 20260902120705 | 17 | 234 | 14.5 | 22.5 | 0.00 | 0.00 | 0.00 | 100 | 906.7 |
| 20260902120507 | 17 | 239 | 12.9 | 22.5 | 0.00 | 0.00 | 0.00 | 100 | 906.7 |
| 20260902120404 | 17 | 252 | 12.9 | 20.9 | 0.00 | 0.00 | 0.00 | 100 | 906.4 |
| 20260902120258 | 17 | 280 | 11.3 | 20.9 | 0.00 | 0.00 | 0.00 | 100 | 907.2 |
| 20260902120049 | 17 | 272 | 14.5 | 27.4 | 0.00 | 0.00 | 0.00 | 100 | 907.1 |
| 20260902115841 | 16 | 251 | 16.1 | 32.2 | 0.00 | 0.00 | 0.00 | 100 | 906.2 |
| 20260902115631 | 17 | 254 | 19.3 | 32.2 | 0.00 | 0.00 | 0.00 | 100 | 905.5 |
| 20260902115434 | 17 | 256 | 14.5 | 27.4 | 0.00 | 0.00 | 0.00 | 100 | 905.9 |
| 20260902115423 | 17 | 256 | 14.5 | 27.4 | 0.00 | 0.00 | 0.00 | 100 | 906.8 |
| 20260902115320 | 17 | 266 | 14.5 | 27.4 | 0.00 | 0.00 | 0.00 | 100 | 906.8 |
| 20260902115213 | 17 | 274 | 12.9 | 29.0 | 0.00 | 0.00 | 0.00 | 100 | 907.0 |
| 20260902115005 | 17 | 286 | 12.9 | 29.0 | 0.00 | 0.00 | 0.00 | 100 | 906.9 |
| 20260902114807 | 17 | 281 | 11.3 | 27.4 | 0.00 | 0.00 | 0.00 | 100 | 907.3 |
| 20260902114558 | 17 | 270 | 14.5 | 27.4 | 0.00 | 0.00 | 0.00 | 100 | 906.9 |
| 20260902114401 | 17 | 271 | 12.9 | 27.4 | 0.00 | 0.00 | 0.00 | 100 | 907.2 |
| 20260902114350 | 17 | 271 | 12.9 | 27.4 | 0.00 | 0.00 | 0.00 | 100 | 907.1 |
| 20260902114247 | 17 | 269 | 12.9 | 27.4 | 0.00 | 0.00 | 0.00 | 100 | 907.2 |
| 20260902114140 | 17 | 270 | 14.5 | 22.5 | 0.00 | 0.00 | 0.00 | 100 | 907.2 |
| 20260902113932 | 17 | 247 | 17.7 | 35.4 | 0.00 | 0.00 | 0.00 | 100 | 907.1 |
| 20260902113724 | 17 | 249 | 19.3 | 35.4 | 0.00 | 0.00 | 0.00 | 100 | 906.6 |
| 20260902113514 | 16 | 254 | 16.1 | 30.6 | 0.00 | 0.00 | 0.00 | 100 | 907.0 |
| 20260902113306 | 16 | 245 | 17.7 | 30.6 | 0.00 | 0.00 | 0.00 | 100 | 906.6 |
| 20260902113203 | 16 | 244 | 16.1 | 30.6 | 0.00 | 0.00 | 0.00 | 100 | 906.7 |
| 20260902113118 | 16 | 246 | 14.5 | 30.6 | 0.00 | 0.00 | 0.00 | 100 | 906.7 |
| 20260902113107 | 17 | 246 | 14.5 | 30.6 | 0.00 | 0.00 | 0.00 | 100 | 907.3 |
| 20260902112859 | 17 | 243 | 14.5 | 27.4 | 0.00 | 0.00 | 0.00 | 100 | 907.2 |
| 20260902112650 | 16 | 243 | 17.7 | 30.6 | 0.00 | 0.00 | 0.00 | 100 | 906.8 |
| 20260902112441 | 17 | 243 | 16.1 | 30.6 | 0.00 | 0.00 | 0.00 | 100 | 907.1 |
| 20260902112233 | 16 | 240 | 14.5 | 30.6 | 0.00 | 0.00 | 0.00 | 100 | 907.3 |
| 20260902112130 | 16 | 242 | 14.5 | 30.6 | 0.00 | 0.00 | 0.00 | 100 | 907.2 |
| 20260902112023 | 16 | 245 | 16.1 | 29.0 | 0.00 | 0.00 | 0.00 | 100 | 907.3 |
| 20260902111815 | 16 | 247 | 16.1 | 29.0 | 0.00 | 0.00 | 0.00 | 100 | 907.3 |
| 20260902111618 | 17 | 247 | 16.1 | 27.4 | 0.00 | 0.00 | 0.00 | 100 | 907.3 |
| 20260902111606 | 16 | 247 | 16.1 | 27.4 | 0.00 | 0.00 | 0.00 | 100 | 907.4 |
| 20260902111407 | 16 | 244 | 16.1 | 27.4 | 0.00 | 0.00 | 0.00 | 100 | 907.5 |
| 20260902111159 | 16 | 240 | 16.1 | 27.4 | 0.00 | 0.00 | 0.00 | 100 | 907.7 |
| 20260902111056 | 16 | 242 | 16.1 | 29.0 | 0.00 | 0.00 | 0.00 | 100 | 908.0 |
| 20260902110949 | 16 | 243 | 17.7 | 29.0 | 0.00 | 0.00 | 0.00 | 100 | 907.8 |
| 20260902110741 | 16 | 244 | 19.3 | 29.0 | 0.00 | 0.00 | 0.00 | 100 | 907.9 |
| 20260902110545 | 16 | 246 | 19.3 | 29.0 | 0.00 | 0.00 | 0.00 | 100 | 908.0 |
| 20260902110533 | 16 | 246 | 19.3 | 29.0 | 0.00 | 0.00 | 0.00 | 100 | 907.9 |
| 20260902110324 | 15 | 248 | 20.9 | 30.6 | 0.00 | 0.00 | 0.00 | 100 | 908.0 |
| 20260902110115 | 15 | 253 | 20.9 | 30.6 | 0.00 | 0.00 | 0.00 | 100 | 907.2 |
| 20260902110012 | 15 | 254 | 19.3 | 30.6 | 0.00 | 0.00 | 0.00 | 100 | 906.9 |
| 20260902105906 | 16 | 254 | 17.7 | 30.6 | 0.00 | 0.00 | 0.00 | 100 | 907.1 |
| 20260902105708 | 15 | 249 | 17.7 | 30.6 | 0.00 | 0.00 | 0.00 | 100 | 907.8 |
| 20260902105459 | 15 | 246 | 19.3 | 30.6 | 0.00 | 0.00 | 0.00 | 100 | 906.8 |
| 20260902105258 | 15 | 252 | 16.1 | 25.7 | 0.00 | 0.00 | 0.00 | 100 | 906.7 |
| 20260902105245 | 15 | 252 | 16.1 | 25.7 | 0.00 | 0.00 | 0.00 | 100 | 906.8 |
| 20260902105036 | 15 | 256 | 16.1 | 24.1 | 0.00 | 0.00 | 0.00 | 100 | 906.6 |
| 20260902104933 | 15 | 256 | 14.5 | 24.1 | 0.00 | 0.00 | 0.00 | 100 | 906.7 |
| 20260902104827 | 15 | 257 | 14.5 | 24.1 | 0.00 | 0.00 | 0.00 | 100 | 906.6 |
| 20260902104618 | 15 | 260 | 14.5 | 29.0 | 0.00 | 0.00 | 0.00 | 100 | 906.4 |
| 20260902104420 | 16 | 257 | 16.1 | 32.2 | 0.00 | 0.00 | 0.00 | 100 | 906.2 |
| 20260902104212 | 16 | 257 | 16.1 | 32.2 | 0.00 | 0.00 | 0.00 | 100 | 906.2 |
| 20260902104014 | 16 | 255 | 14.5 | 29.0 | 0.00 | 0.00 | 0.00 | 100 | 906.4 |
| 20260902104003 | 16 | 255 | 14.5 | 29.0 | 0.00 | 0.00 | 0.00 | 100 | 906.6 |
| 20260902103900 | 16 | 253 | 16.1 | 29.0 | 0.00 | 0.00 | 0.00 | 100 | 906.6 |
| 20260902103753 | 16 | 251 | 16.1 | 29.0 | 0.00 | 0.00 | 0.00 | 100 | 907.3 |
| 20260902103545 | 16 | 251 | 19.3 | 29.0 | 0.00 | 0.00 | 0.00 | 100 | 906.7 |
| 20260902103337 | 16 | 248 | 19.3 | 29.0 | 0.00 | 0.00 | 0.00 | 100 | 906.9 |
| 20260902103128 | 16 | 246 | 19.3 | 29.0 | 0.00 | 0.00 | 0.00 | 100 | 907.1 |
| 20260902102919 | 16 | 247 | 17.7 | 29.0 | 0.00 | 0.00 | 0.00 | 100 | 907.1 |
| 20260902102816 | 16 | 249 | 16.1 | 27.4 | 0.00 | 0.00 | 0.00 | 100 | 907.3 |
| 20260902102734 | 16 | 253 | 16.1 | 27.4 | 0.00 | 0.00 | 0.00 | 100 | 907.3 |
| 20260902102720 | 16 | 253 | 16.1 | 27.4 | 0.00 | 0.00 | 0.00 | 100 | 907.4 |
| 20260902102512 | 16 | 258 | 14.5 | 25.7 | 0.00 | 0.00 | 0.00 | 100 | 907.4 |
| 20260902102307 | 16 | 256 | 14.5 | 25.7 | 0.00 | 0.00 | 0.00 | 100 | 908.0 |
| 20260902102054 | 16 | 259 | 12.9 | 27.4 | 0.00 | 0.00 | 0.00 | 100 | 908.0 |
| 20260902101845 | 16 | 250 | 11.3 | 20.9 | 0.00 | 0.00 | 0.00 | 100 | 909.0 |
| 20260902101742 | 16 | 246 | 12.9 | 20.9 | 0.00 | 0.00 | 0.00 | 100 | 908.8 |
| 20260902101636 | 15 | 245 | 12.9 | 20.9 | 0.00 | 0.00 | 0.00 | 100 | 908.8 |
| 20260902101440 | 15 | 248 | 12.9 | 20.9 | 0.00 | 0.00 | 0.00 | 100 | 908.9 |
| 20260902101427 | 15 | 248 | 12.9 | 20.9 | 0.00 | 0.00 | 0.00 | 100 | 908.7 |
| 20260902101219 | 14 | 245 | 14.5 | 22.5 | 0.00 | 0.00 | 0.00 | 100 | 908.4 |
| 20260902101021 | 14 | 246 | 14.5 | 22.5 | 0.00 | 0.00 | 0.00 | 100 | 907.2 |
| 20260902100812 | 14 | 248 | 12.9 | 22.5 | 0.00 | 0.00 | 0.00 | 100 | 907.2 |
| 20260902100709 | 14 | 247 | 11.3 | 20.9 | 0.00 | 0.00 | 0.00 | 100 | 907.2 |
| 20260902100602 | 14 | 246 | 11.3 | 20.9 | 0.00 | 0.00 | 0.00 | 100 | 907.2 |
| 20260902100354 | 14 | 250 | 11.3 | 17.7 | 0.00 | 0.00 | 0.00 | 100 | 907.1 |
| 20260902100146 | 14 | 249 | 11.3 | 20.9 | 0.00 | 0.00 | 0.00 | 100 | 907.1 |
| 20260902095937 | 15 | 253 | 9.7 | 16.1 | 0.00 | 0.00 | 0.00 | 100 | 907.1 |
| 20260902095728 | 15 | 274 | 11.3 | 24.1 | 0.00 | 0.00 | 0.00 | 100 | 907.1 |
| 20260902095625 | 15 | 288 | 11.3 | 24.1 | 0.00 | 0.00 | 0.00 | 100 | 907.0 |
| 20260902095519 | 15 | 293 | 11.3 | 24.1 | 0.00 | 0.00 | 0.00 | 100 | 906.8 |
| 20260902095321 | 15 | 289 | 8.0 | 17.7 | 0.00 | 0.00 | 0.00 | 100 | 906.9 |
| 20260902095124 | 15 | 290 | 9.7 | 19.3 | 0.00 | 0.00 | 0.00 | 100 | 907.1 |
| 20260902095112 | 15 | 290 | 9.7 | 19.3 | 0.00 | 0.00 | 0.00 | 100 | 906.9 |
| 20260902094915 | 15 | 300 | 9.7 | 17.7 | 0.00 | 0.00 | 0.00 | 100 | 906.7 |
| 20260902094904 | 15 | 300 | 9.7 | 17.7 | 0.00 | 0.00 | 0.00 | 100 | 906.9 |
| 20260902094655 | 15 | 301 | 8.0 | 17.7 | 0.00 | 0.00 | 0.00 | 100 | 907.2 |
| 20260902094552 | 15 | 300 | 9.7 | 20.9 | 0.00 | 0.00 | 0.00 | 100 | 907.1 |
| 20260902094445 | 15 | 296 | 11.3 | 20.9 | 0.00 | 0.00 | 0.00 | 100 | 906.9 |
| 20260902094237 | 15 | 295 | 12.9 | 25.7 | 0.00 | 0.00 | 0.00 | 100 | 907.2 |
| 20260902094029 | 15 | 280 | 12.9 | 25.7 | 0.00 | 0.00 | 0.00 | 100 | 907.0 |
| 20260902093820 | 15 | 238 | 11.3 | 24.1 | 0.00 | 0.00 | 0.00 | 100 | 907.0 |
| 20260902093622 | 15 | 225 | 9.7 | 24.1 | 0.00 | 0.00 | 0.00 | 100 | 907.6 |
| 20260902093519 | 15 | 212 | 11.3 | 25.7 | 0.00 | 0.00 | 0.00 | 100 | 907.8 |
| 20260902093412 | 15 | 226 | 11.3 | 25.7 | 0.00 | 0.00 | 0.00 | 100 | 907.2 |
| 20260902093204 | 15 | 243 | 12.9 | 25.7 | 0.00 | 0.00 | 0.00 | 100 | 907.2 |
| 20260902092955 | 15 | 238 | 12.9 | 25.7 | 0.00 | 0.00 | 0.00 | 100 | 907.2 |
| 20260902092747 | 15 | 225 | 12.9 | 24.1 | 0.00 | 0.00 | 0.00 | 100 | 907.2 |
| 20260902092538 | 15 | 232 | 12.9 | 24.1 | 0.00 | 0.00 | 0.00 | 100 | 906.8 |
| 20260902092437 | 15 | 231 | 12.9 | 24.1 | 0.00 | 0.00 | 0.00 | 100 | 907.7 |
| 20260902092338 | 15 | 236 | 11.3 | 22.5 | 0.00 | 0.00 | 0.00 | 100 | 907.7 |
| 20260902092327 | 15 | 236 | 11.3 | 22.5 | 0.00 | 0.00 | 0.00 | 100 | 908.0 |
| 20260902092129 | 15 | 228 | 11.3 | 22.5 | 0.00 | 0.00 | 0.00 | 100 | 907.9 |
| 20260902091921 | 15 | 239 | 14.5 | 22.5 | 0.00 | 0.00 | 0.00 | 100 | 907.7 |
| 20260902091712 | 15 | 239 | 12.9 | 22.5 | 0.00 | 0.00 | 0.00 | 100 | 907.7 |
| 20260902091503 | 15 | 225 | 12.9 | 25.7 | 0.00 | 0.00 | 0.00 | 100 | 907.8 |
| 20260902091400 | 15 | 231 | 12.9 | 25.7 | 0.00 | 0.00 | 0.00 | 100 | 907.8 |
| 20260902091254 | 15 | 238 | 14.5 | 25.7 | 0.00 | 0.00 | 0.00 | 100 | 907.6 |
| 20260902091057 | 15 | 235 | 16.1 | 27.4 | 0.00 | 0.00 | 0.00 | 100 | 907.7 |
| 20260902091045 | 15 | 235 | 16.1 | 27.4 | 0.00 | 0.00 | 0.00 | 100 | 907.4 |
| 20260902090837 | 15 | 240 | 16.1 | 25.7 | 0.00 | 0.00 | 0.00 | 100 | 907.5 |
| 20260902090628 | 15 | 247 | 14.5 | 25.7 | 0.00 | 0.00 | 0.00 | 100 | 907.8 |
| 20260902090430 | 15 | 246 | 17.7 | 27.4 | 0.00 | 0.00 | 0.00 | 100 | 907.7 |
| 20260902090327 | 15 | 246 | 17.7 | 27.4 | 0.00 | 0.00 | 0.00 | 100 | 907.6 |
| 20260902090220 | 15 | 245 | 17.7 | 27.4 | 0.00 | 0.00 | 0.00 | 100 | 907.6 |
| 20260902090023 | 15 | 242 | 17.7 | 29.0 | 0.00 | 0.00 | 0.00 | 100 | 907.8 |
| 20260902090012 | 15 | 242 | 17.7 | 29.0 | 0.00 | 0.00 | 0.00 | 100 | 907.9 |
| 20260902085803 | 15 | 233 | 19.3 | 27.4 | 0.00 | 0.00 | 0.00 | 100 | 907.7 |
| 20260902085554 | 15 | 233 | 19.3 | 29.0 | 0.00 | 0.00 | 0.00 | 100 | 907.5 |
| 20260902085346 | 15 | 235 | 19.3 | 29.0 | 0.00 | 0.00 | 0.00 | 100 | 907.2 |
| 20260902085243 | 15 | 235 | 19.3 | 29.0 | 0.00 | 0.00 | 0.00 | 100 | 907.3 |
| 20260902085136 | 15 | 240 | 17.7 | 29.0 | 0.00 | 0.00 | 0.00 | 100 | 907.2 |
| 20260902084928 | 14 | 243 | 16.1 | 25.7 | 0.00 | 0.00 | 0.00 | 100 | 906.8 |
| 20260902084742 | 15 | 237 | 16.1 | 25.7 | 0.00 | 0.00 | 0.00 | 100 | 907.0 |
| 20260902084730 | 15 | 237 | 16.1 | 25.7 | 0.00 | 0.00 | 0.00 | 100 | 907.4 |
| 20260902084521 | 15 | 238 | 14.5 | 27.4 | 0.00 | 0.00 | 0.00 | 100 | 907.8 |
| 20260902084313 | 15 | 248 | 12.9 | 27.4 | 0.00 | 0.00 | 0.00 | 100 | 907.7 |
| 20260902084210 | 15 | 250 | 12.9 | 27.4 | 0.00 | 0.00 | 0.00 | 100 | 907.6 |
| 20260902084103 | 15 | 249 | 12.9 | 25.7 | 0.00 | 0.00 | 0.00 | 100 | 907.5 |
| 20260902083855 | 15 | 240 | 14.5 | 25.7 | 0.00 | 0.00 | 0.00 | 100 | 907.4 |
| 20260902083646 | 15 | 238 | 14.5 | 25.7 | 0.00 | 0.00 | 0.00 | 100 | 907.6 |
| 20260902083437 | 14 | 240 | 12.9 | 20.9 | 0.00 | 0.00 | 0.00 | 100 | 907.6 |
| 20260902083241 | 14 | 238 | 11.3 | 24.1 | 0.00 | 0.00 | 0.00 | 100 | 907.5 |
| 20260902083229 | 15 | 238 | 11.3 | 24.1 | 0.00 | 0.00 | 0.00 | 100 | 907.7 |
| 20260902083126 | 15 | 232 | 12.9 | 24.1 | 0.00 | 0.00 | 0.00 | 100 | 907.7 |
| 20260902083030 | 15 | 235 | 12.9 | 24.1 | 0.00 | 0.00 | 0.00 | 100 | 907.6 |
| 20260902082821 | 15 | 241 | 12.9 | 20.9 | 0.00 | 0.00 | 0.00 | 100 | 907.6 |
| 20260902082612 | 15 | 238 | 12.9 | 22.5 | 0.00 | 0.00 | 0.00 | 100 | 907.8 |
| 20260902082404 | 14 | 238 | 12.9 | 22.5 | 0.00 | 0.00 | 0.00 | 100 | 907.7 |
| 20260902082227 | 15 | 234 | 12.9 | 19.3 | 0.00 | 0.00 | 0.00 | 100 | 907.9 |
| 20260902082159 | 15 | 234 | 12.9 | 19.3 | 0.00 | 0.00 | 0.00 | 100 | |
| 20260902082052 | 15 | 237 | 12.9 | 19.3 | 0.00 | 0.00 | 0.00 | 100 | |
| 20260902081842 | 14 | 239 | 14.5 | 20.9 | 0.00 | 0.00 | 0.00 | 100 | 907.5 |
| 20260902081623 | 14 | 228 | 14.5 | 20.9 | 0.00 | 0.00 | 0.00 | 100 | |
| 20260902081511 | 14 | 227 | 12.9 | 20.9 | 0.00 | 0.00 | 0.00 | 100 | |
| 20260902081005 | 14 | 225 | 12.9 | 20.9 | 0.00 | 0.00 | 0.00 | 100 | |
| 20260902080538 | 14 | 238 | 12.9 | 17.7 | 0.00 | 0.00 | 0.00 | 100 | 907.5 |
| 20260902080020 | 14 | 222 | 12.9 | 20.9 | 0.00 | 0.00 | 0.00 | 100 | 907.5 |
| 20260902075502 | 14 | 222 | 11.3 | 19.3 | 0.00 | 0.00 | 0.00 | 100 | 907.5 |
| 20260902074941 | 14 | 225 | 11.3 | 17.7 | 0.00 | 0.00 | 0.00 | 100 | 907.3 |
| 20260902074419 | 14 | 226 | 12.9 | 19.3 | 0.00 | 0.00 | 0.00 | 100 | 907.3 |
| 20260902073858 | 13 | 234 | 14.5 | 22.5 | 0.00 | 0.00 | 0.00 | 100 | 907.0 |
| 20260902073345 | 14 | 231 | 12.9 | 19.3 | 0.00 | 0.00 | 0.00 | 100 | 907.1 |
| 20260902072824 | 13 | 234 | 11.3 | 17.7 | 0.00 | 0.00 | 0.00 | 100 | 907.3 |
| 20260902072301 | 13 | 226 | 12.9 | 19.3 | 0.00 | 0.00 | 0.00 | 100 | 907.2 |
| 20260902071751 | 13 | 211 | 9.7 | 14.5 | 0.00 | 0.00 | 0.00 | 100 | 907.1 |
| 20260902071228 | 13 | 211 | 9.7 | 17.7 | 0.00 | 0.00 | 0.00 | 100 | 906.9 |
| 20260902070707 | 13 | 221 | 9.7 | 16.1 | 0.00 | 0.00 | 0.00 | 100 | 907.1 |
| 20260902070154 | 13 | 230 | 9.7 | 16.1 | 0.00 | 0.00 | 0.00 | 100 | 907.4 |
| 20260902065634 | 13 | 226 | 9.7 | 16.1 | 0.00 | 0.00 | 0.00 | 100 | 907.4 |
| 20260902065111 | 13 | 225 | 11.3 | 16.1 | 0.00 | 0.00 | 0.00 | 100 | 907.2 |
| 20260902064600 | 13 | 224 | 11.3 | 16.1 | 0.00 | 0.00 | 0.00 | 100 | 906.9 |
| 20260902064037 | 13 | 224 | 9.7 | 14.5 | 0.00 | 0.00 | 0.00 | 100 | 906.9 |
| 20260902063631 | 13 | 225 | 8.0 | 12.9 | 0.00 | 0.00 | 0.00 | 100 | 907.1 |
| 20260902063607 | 13 | 224 | 8.0 | 12.9 | 0.00 | 0.00 | 0.00 | 100 | |
| 20260902063355 | 13 | 226 | 8.0 | 12.9 | 0.00 | 0.00 | 0.00 | 100 | |
| 20260902063252 | 13 | 227 | 9.7 | 12.9 | 0.00 | 0.00 | 0.00 | 100 | |
| 20260902063128 | 13 | 226 | 8.0 | 12.9 | 0.00 | 0.00 | 0.00 | 100 | |
| 20260902063024 | 13 | 226 | 9.7 | 12.9 | 0.00 | 0.00 | 0.00 | 100 | |
| 20260902062718 | 13 | 220 | 9.7 | 12.9 | 0.00 | 0.00 | 0.00 | 100 | 907.3 |
| 20260902062521 | 13 | 216 | 8.0 | 12.9 | 0.00 | 0.00 | 0.00 | 100 | 907.3 |
| 20260902062416 | 12 | 211 | 8.0 | 12.9 | 0.00 | 0.00 | 0.00 | 100 | 907.3 |
| 20260902062311 | 12 | 218 | 8.0 | 14.5 | 0.00 | 0.00 | 0.00 | 100 | 907.2 |
| 20260902062217 | 12 | 221 | 8.0 | 14.5 | 0.00 | 0.00 | 0.00 | 100 | 907.1 |
| 20260902062103 | 12 | 226 | 9.7 | 14.5 | 0.00 | 0.00 | 0.00 | 100 | 907.0 |
| 20260902062010 | 12 | 220 | 9.7 | 16.1 | 0.00 | 0.00 | 0.00 | 100 | 906.9 |
| 20260902061854 | 12 | 210 | 9.7 | 16.1 | 0.00 | 0.00 | 0.00 | 100 | 906.8 |
| 20260902061759 | 12 | 209 | 9.7 | 16.1 | 0.00 | 0.00 | 0.00 | 100 | 906.8 |
| 20260902061645 | 12 | 207 | 9.7 | 16.1 | 0.00 | 0.00 | 0.00 | 100 | 906.7 |
| 20260902061551 | 12 | 209 | 9.7 | 17.7 | 0.00 | 0.00 | 0.00 | 100 | 906.7 |
| 20260902061437 | 12 | 207 | 11.3 | 17.7 | 0.00 | 0.00 | 0.00 | 100 | 906.5 |
| 20260902061343 | 12 | 209 | 11.3 | 17.7 | 0.00 | 0.00 | 0.00 | 100 | 906.3 |
| 20260902061232 | 12 | 207 | 11.3 | 17.7 | 0.00 | 0.00 | 0.00 | 100 | 906.0 |
| 20260902061138 | 12 | 208 | 12.9 | 19.3 | 0.00 | 0.00 | 0.00 | 100 | 906.3 |
| 20260902061024 | 12 | 207 | 11.3 | 19.3 | 0.00 | 0.00 | 0.00 | 100 | 906.4 |
| 20260902060929 | 12 | 206 | 12.9 | 19.3 | 0.00 | 0.00 | 0.00 | 100 | 907.1 |
| 20260902060815 | 12 | 208 | 12.9 | 19.3 | 0.00 | 0.00 | 0.00 | 100 | 911.7 |
| 20260902060722 | 12 | 209 | 12.9 | 19.3 | 0.00 | 0.00 | 0.00 | 100 | 906.3 |
| 20260902060606 | 12 | 210 | 12.9 | 20.9 | 0.00 | 0.00 | 0.00 | 100 | 906.2 |
| 20260902060512 | 12 | 208 | 12.9 | 20.9 | 0.00 | 0.00 | 0.00 | 100 | 906.2 |
| 20260902060358 | 12 | 209 | 12.9 | 20.9 | 0.00 | 0.00 | 0.00 | 100 | 906.2 |
| 20260902060253 | 12 | 208 | 12.9 | 20.9 | 0.00 | 0.00 | 0.00 | 100 | 906.2 |
| 20260902060148 | 12 | 208 | 12.9 | 19.3 | 0.00 | 0.00 | 0.00 | 100 | 906.5 |
| 20260902060054 | 12 | 208 | 12.9 | 22.5 | 0.00 | 0.00 | 0.00 | 100 | 907.1 |
| 20260902055940 | 12 | 207 | 12.9 | 22.5 | 0.00 | 0.00 | 0.00 | 100 | 911.7 |
| 20260902055846 | 12 | 208 | 12.9 | 22.5 | 0.00 | 0.00 | 0.00 | 100 | 906.3 |
| 20260902055731 | 12 | 207 | 12.9 | 22.5 | 0.00 | 0.00 | 0.00 | 100 | 906.1 |
| 20260902055648 | 12 | 206 | 12.9 | 22.5 | 0.00 | 0.00 | 0.00 | 100 | 905.9 |
| 20260902055533 | 12 | 205 | 11.3 | 17.7 | 0.00 | 0.00 | 0.00 | 100 | 905.7 |
| 20260902055439 | 12 | 205 | 12.9 | 17.7 | 0.00 | 0.00 | 0.00 | 100 | 905.7 |
| 20260902055325 | 12 | 205 | 12.9 | 17.7 | 0.00 | 0.00 | 0.00 | 100 | 906.0 |
| 20260902055230 | 12 | 204 | 12.9 | 17.7 | 0.00 | 0.00 | 0.00 | 100 | 906.0 |
| 20260902055220 | 12 | 204 | 12.9 | 17.7 | 0.00 | 0.00 | 0.00 | 100 | 908.6 |
| 20260902055115 | 12 | 203 | 12.9 | 19.3 | 0.00 | 0.00 | 0.00 | 100 | 908.6 |
| 20260902055021 | 12 | 203 | 12.9 | 19.3 | 0.00 | 0.00 | 0.00 | 100 | 910.7 |
| 20260902054907 | 12 | 204 | 12.9 | 22.5 | 0.00 | 0.00 | 0.00 | 100 | 905.8 |
| 20260902054813 | 12 | 207 | 12.9 | 22.5 | 0.00 | 0.00 | 0.00 | 100 | 906.2 |
| 20260902054658 | 12 | 208 | 12.9 | 22.5 | 0.00 | 0.00 | 0.00 | 100 | 906.5 |
| 20260902054604 | 12 | 210 | 12.9 | 22.5 | 0.00 | 0.00 | 0.00 | 100 | 907.5 |
| 20260902054449 | 12 | 212 | 14.5 | 22.5 | 0.00 | 0.00 | 0.00 | 100 | 909.0 |
| 20260902054400 | 12 | 216 | 14.5 | 22.5 | 0.00 | 0.00 | 0.00 | 100 | 905.8 |
| 20260902054241 | 12 | 219 | 16.1 | 22.5 | 0.00 | 0.00 | 0.00 | 100 | 905.8 |
| 20260902054136 | 12 | 218 | 14.5 | 20.9 | 0.00 | 0.00 | 0.00 | 100 | 905.9 |
| 20260902054040 | 12 | 220 | 14.5 | 22.5 | 0.00 | 0.00 | 0.00 | 100 | 907.1 |
| 20260902053947 | 12 | 218 | 14.5 | 22.5 | 0.00 | 0.00 | 0.00 | 100 | 907.1 |
| 20260902053832 | 12 | 215 | 12.9 | 22.5 | 0.00 | 0.00 | 0.00 | 100 | 909.2 |
| 20260902053738 | 12 | 212 | 12.9 | 22.5 | 0.00 | 0.00 | 0.00 | 100 | 911.3 |
| 20260902053623 | 12 | 210 | 11.3 | 17.7 | 0.00 | 0.00 | 0.00 | 100 | 906.7 |
| 20260902053529 | 12 | 213 | 11.3 | 17.7 | 0.00 | 0.00 | 0.00 | 100 | 906.8 |
| 20260902053414 | 12 | 212 | 11.3 | 17.7 | 0.00 | 0.00 | 0.00 | 100 | 906.6 |
| 20260902053321 | 12 | 210 | 11.3 | 16.1 | 0.00 | 0.00 | 0.00 | 100 | 906.6 |
| 20260902053206 | 12 | 208 | 11.3 | 14.5 | 0.00 | 0.00 | 0.00 | 100 | 906.5 |
| 20260902053101 | 12 | 206 | 9.7 | 12.9 | 0.00 | 0.00 | 0.00 | 100 | 906.6 |
| 20260902052956 | 12 | 204 | 9.7 | 12.9 | 0.00 | 0.00 | 0.00 | 100 | 906.7 |
| 20260902052903 | 12 | 205 | 9.7 | 12.9 | 0.00 | 0.00 | 0.00 | 100 | 906.6 |
| 20260902052748 | 12 | 204 | 9.7 | 12.9 | 0.00 | 0.00 | 0.00 | 100 | 906.6 |
| 20260902052655 | 12 | 203 | 9.7 | 11.3 | 0.00 | 0.00 | 0.00 | 100 | 906.6 |
| 20260902052539 | 12 | 200 | 9.7 | 12.9 | 0.00 | 0.00 | 0.00 | 100 | 906.3 |
| 20260902052456 | 12 | 200 | 9.7 | 14.5 | 0.00 | 0.00 | 0.00 | 100 | 906.3 |
| 20260902052341 | 12 | 199 | 9.7 | 14.5 | 0.00 | 0.00 | 0.00 | 100 | 906.5 |
| 20260902052247 | 12 | 198 | 9.7 | 14.5 | 0.00 | 0.00 | 0.00 | 100 | 906.9 |
| 20260902052133 | 12 | 199 | 9.7 | 14.5 | 0.00 | 0.00 | 0.00 | 100 | 908.0 |
| 20260902052028 | 12 | 197 | 9.7 | 12.9 | 0.00 | 0.00 | 0.00 | 100 | 909.0 |
| 20260902051923 | 12 | 197 | 9.7 | 12.9 | 0.00 | 0.00 | 0.00 | 100 | 906.8 |
| 20260902051829 | 12 | 198 | 9.7 | 14.5 | 0.00 | 0.00 | 0.00 | 100 | 906.9 |
| 20260902051715 | 12 | 197 | 9.7 | 14.5 | 0.00 | 0.00 | 0.00 | 100 | 906.8 |
| 20260902051621 | 12 | 204 | 9.7 | 14.5 | 0.00 | 0.00 | 0.00 | 100 | 906.8 |
| 20260902051506 | 12 | 205 | 9.7 | 12.9 | 0.00 | 0.00 | 0.00 | 100 | 906.7 |
| 20260902051412 | 12 | 205 | 9.7 | 12.9 | 0.00 | 0.00 | 0.00 | 100 | 906.7 |
| 20260902051257 | 12 | 204 | 9.7 | 12.9 | 0.00 | 0.00 | 0.00 | 100 | 906.7 |
| 20260902051204 | 12 | 202 | 9.7 | 12.9 | 0.00 | 0.00 | 0.00 | 100 | 906.6 |
| 20260902051049 | 12 | 197 | 8.0 | 11.3 | 0.00 | 0.00 | 0.00 | 100 | 906.7 |
| 20260902050944 | 12 | 198 | 8.0 | 11.3 | 0.00 | 0.00 | 0.00 | 100 | 906.7 |
| 20260902050839 | 12 | 198 | 8.0 | 11.3 | 0.00 | 0.00 | 0.00 | 100 | 906.6 |
| 20260902050756 | 12 | 197 | 8.0 | 9.7 | 0.00 | 0.00 | 0.00 | 100 | 906.6 |
| 20260902050642 | 12 | 196 | 8.0 | 9.7 | 0.00 | 0.00 | 0.00 | 100 | 906.5 |
| 20260902050548 | 12 | 197 | 8.0 | 9.7 | 0.00 | 0.00 | 0.00 | 100 | 906.4 |
| 20260902050433 | 12 | 197 | 8.0 | 9.7 | 0.00 | 0.00 | 0.00 | 100 | 906.3 |
| 20260902050338 | 12 | 198 | 8.0 | 9.7 | 0.00 | 0.00 | 0.00 | 100 | 906.2 |
| 20260902050224 | 12 | 198 | 8.0 | 9.7 | 0.00 | 0.00 | 0.00 | 100 | 906.1 |
| 20260902050129 | 12 | 199 | 8.0 | 8.0 | 0.00 | 0.00 | 0.00 | 100 | 906.1 |
| 20260902050015 | 12 | 200 | 8.0 | 8.0 | 0.00 | 0.00 | 0.00 | 100 | 906.1 |
| 20260902045911 | 12 | 201 | 6.4 | 8.0 | 0.00 | 0.00 | 0.00 | 100 | 906.1 |
| 20260902045806 | 12 | 202 | 6.4 | 8.0 | 0.00 | 0.00 | 0.00 | 100 | 906.8 |
| 20260902045712 | 12 | 202 | 6.4 | 8.0 | 0.00 | 0.00 | 0.00 | 100 | 907.8 |
| 20260902045558 | 12 | 203 | 6.4 | 8.0 | 0.00 | 0.00 | 0.00 | 100 | 910.0 |
| 20260902045504 | 12 | 205 | 6.4 | 8.0 | 0.00 | 0.00 | 0.00 | 100 | 910.0 |
| 20260902045349 | 12 | 205 | 6.4 | 8.0 | 0.00 | 0.00 | 0.00 | 100 | 906.8 |
| 20260902045255 | 12 | 205 | 6.4 | 6.4 | 0.00 | 0.00 | 0.00 | 100 | 906.8 |
| 20260902045140 | 12 | 203 | 6.4 | 6.4 | 0.00 | 0.00 | 0.00 | 100 | 906.8 |
| 20260902045057 | 12 | 203 | 4.8 | 6.4 | 0.00 | 0.00 | 0.00 | 100 | 906.8 |
| 20260902044942 | 12 | 199 | 4.8 | 6.4 | 0.00 | 0.00 | 0.00 | 100 | 906.7 |
| 20260902044837 | 12 | 194 | 4.8 | 6.4 | 0.00 | 0.00 | 0.00 | 100 | 906.7 |
| 20260902044732 | 12 | 192 | 4.8 | 6.4 | 0.00 | 0.00 | 0.00 | 100 | 906.6 |
| 20260902044639 | 12 | 189 | 4.8 | 4.8 | 0.00 | 0.00 | 0.00 | 100 | 906.7 |
| 20260902044524 | 12 | 188 | 4.8 | 4.8 | 0.00 | 0.00 | 0.00 | 100 | 906.6 |
| 20260902044430 | 12 | 187 | 4.8 | 4.8 | 0.00 | 0.00 | 0.00 | 100 | 906.5 |
| 20260902044315 | 12 | 186 | 4.8 | 4.8 | 0.00 | 0.00 | 0.00 | 100 | 906.4 |
| 20260902044221 | 12 | 185 | 4.8 | 4.8 | 0.00 | 0.00 | 0.00 | 100 | 906.3 |
| 20260902044106 | 12 | 185 | 3.2 | 4.8 | 0.00 | 0.00 | 0.00 | 100 | 906.2 |
| 20260902044012 | 12 | 185 | 3.2 | 4.8 | 0.00 | 0.00 | 0.00 | 100 | 906.2 |
| 20260902043857 | 12 | 185 | 3.2 | 4.8 | 0.00 | 0.00 | 0.00 | 100 | 906.3 |
| 20260902043753 | 12 | 183 | 3.2 | 4.8 | 0.00 | 0.00 | 0.00 | 100 | 906.1 |
| 20260902043648 | 12 | 174 | 3.2 | 4.8 | 0.00 | 0.00 | 0.00 | 100 | 906.1 |
| 20260902043555 | 12 | 165 | 3.2 | 6.4 | 0.00 | 0.00 | 0.00 | 100 | 906.1 |
| 20260902043439 | 12 | 158 | 4.8 | 6.4 | 0.00 | 0.00 | 0.00 | 100 | 906.0 |
| 20260902043357 | 12 | 155 | 4.8 | 6.4 | 0.00 | 0.00 | 0.00 | 100 | 905.8 |
| 20260902043242 | 12 | 155 | 4.8 | 6.4 | 0.00 | 0.00 | 0.00 | 100 | 905.8 |
| 20260902043147 | 12 | 159 | 4.8 | 6.4 | 0.00 | 0.00 | 0.00 | 100 | 905.8 |
| 20260902043033 | 12 | 161 | 4.8 | 6.4 | 0.00 | 0.00 | 0.00 | 100 | 906.5 |
| 20260902042939 | 12 | 163 | 4.8 | 6.4 | 0.00 | 0.00 | 0.00 | 100 | 907.6 |
| 20260902042824 | 12 | 165 | 4.8 | 6.4 | 0.00 | 0.00 | 0.00 | 100 | 909.9 |
| 20260902042720 | 12 | 169 | 4.8 | 6.4 | 0.00 | 0.00 | 0.00 | 100 | 905.8 |
| 20260902042614 | 12 | 178 | 4.8 | 6.4 | 0.00 | 0.00 | 0.00 | 100 | 905.8 |
| 20260902042521 | 12 | 182 | 6.4 | 6.4 | 0.00 | 0.00 | 0.00 | 100 | 905.8 |
| 20260902042406 | 12 | 183 | 6.4 | 6.4 | 0.00 | 0.00 | 0.00 | 100 | 906.0 |
| 20260902042315 | 12 | 183 | 6.4 | 6.4 | 0.00 | 0.00 | 0.00 | 100 | 906.0 |
| 20260902042158 | 12 | 183 | 6.4 | 6.4 | 0.00 | 0.00 | 0.00 | 100 | 906.2 |
| 20260902042104 | 12 | 184 | 6.4 | 6.4 | 0.00 | 0.00 | 0.00 | 100 | 907.2 |
| 20260902041949 | 12 | 184 | 6.4 | 6.4 | 0.00 | 0.00 | 0.00 | 100 | 909.0 |
| 20260902041855 | 12 | 185 | 6.4 | 6.4 | 0.00 | 0.00 | 0.00 | 100 | 905.7 |
| 20260902041740 | 12 | 185 | 6.4 | 6.4 | 0.00 | 0.00 | 0.00 | 100 | 905.6 |
| 20260902041646 | 12 | 185 | 6.4 | 8.0 | 0.00 | 0.00 | 0.00 | 100 | 905.6 |
| 20260902041541 | 12 | 186 | 6.4 | 8.0 | 0.00 | 0.00 | 0.00 | 100 | 905.5 |
| 20260902041447 | 12 | 185 | 6.4 | 8.0 | 0.00 | 0.00 | 0.00 | 100 | 905.3 |
| 20260902041333 | 12 | 185 | 6.4 | 8.0 | 0.00 | 0.00 | 0.00 | 100 | 905.5 |
| 20260902041239 | 12 | 185 | 6.4 | 8.0 | 0.00 | 0.00 | 0.00 | 100 | 905.5 |
| 20260902041124 | 11 | 185 | 6.4 | 8.0 | 0.00 | 0.00 | 0.00 | 100 | 908.8 |
| 20260902041030 | 11 | 186 | 6.4 | 8.0 | 0.00 | 0.00 | 0.00 | 100 | 908.8 |
| 20260902040915 | 11 | 186 | 6.4 | 8.0 | 0.00 | 0.00 | 0.00 | 100 | 909.1 |
| 20260902040822 | 12 | 187 | 6.4 | 8.0 | 0.00 | 0.00 | 0.00 | 100 | 905.5 |
| 20260902040707 | 12 | 187 | 6.4 | 8.0 | 0.00 | 0.00 | 0.00 | 100 | 905.5 |
| 20260902040602 | 12 | 186 | 8.0 | 8.0 | 0.00 | 0.00 | 0.00 | 100 | 906.1 |
| 20260902040457 | 12 | 186 | 8.0 | 9.7 | 0.00 | 0.00 | 0.00 | 100 | 907.0 |
| 20260902040404 | 12 | 186 | 8.0 | 9.7 | 0.00 | 0.00 | 0.00 | 100 | 908.8 |
| 20260902040249 | 12 | 187 | 8.0 | 9.7 | 0.00 | 0.00 | 0.00 | 100 | 905.5 |
| 20260902040155 | 11 | 189 | 8.0 | 9.7 | 0.00 | 0.00 | 0.00 | 100 | 905.4 |
| 20260902040041 | 11 | 189 | 8.0 | 9.7 | 0.00 | 0.00 | 0.00 | 100 | 905.3 |
| 20260902035957 | 11 | 189 | 6.4 | 9.7 | 0.00 | 0.00 | 0.00 | 100 | 905.3 |
| 20260902035842 | 11 | 189 | 6.4 | 9.7 | 0.00 | 0.00 | 0.00 | 100 | 905.6 |
| 20260902035749 | 11 | 190 | 6.4 | 9.7 | 0.00 | 0.00 | 0.00 | 100 | 906.4 |
| 20260902035634 | 11 | 192 | 6.4 | 9.7 | 0.00 | 0.00 | 0.00 | 100 | 908.0 |
| 20260902035529 | 11 | 192 | 6.4 | 9.7 | 0.00 | 0.00 | 0.00 | 100 | 911.1 |
| 20260902035424 | 11 | 192 | 6.4 | 9.7 | 0.00 | 0.00 | 0.00 | 100 | 906.0 |
| 20260902035330 | 11 | 191 | 6.4 | 8.0 | 0.00 | 0.00 | 0.00 | 100 | 906.3 |
| 20260902035216 | 12 | 190 | 6.4 | 8.0 | 0.00 | 0.00 | 0.00 | 100 | 907.1 |
| 20260902035122 | 12 | 188 | 6.4 | 8.0 | 0.00 | 0.00 | 0.00 | 100 | 907.1 |
| 20260902035007 | 12 | 186 | 6.4 | 8.0 | 0.00 | 0.00 | 0.00 | 100 | 905.7 |
| 20260902034913 | 12 | 187 | 6.4 | 8.0 | 0.00 | 0.00 | 0.00 | 100 | 905.6 |
| 20260902034758 | 12 | 188 | 6.4 | 8.0 | 0.00 | 0.00 | 0.00 | 100 | 905.5 |
| 20260902034705 | 12 | 188 | 6.4 | 8.0 | 0.00 | 0.00 | 0.00 | 100 | 905.5 |
| 20260902034550 | 11 | 190 | 6.4 | 8.0 | 0.00 | 0.00 | 0.00 | 100 | 905.9 |
| 20260902034445 | 11 | 192 | 6.4 | 8.0 | 0.00 | 0.00 | 0.00 | 100 | 905.9 |
| 20260902034340 | 11 | 193 | 6.4 | 8.0 | 0.00 | 0.00 | 0.00 | 100 | 907.0 |
| 20260902034257 | 12 | 195 | 6.4 | 9.7 | 0.00 | 0.00 | 0.00 | 100 | 907.0 |
| 20260902034142 | 12 | 196 | 6.4 | 9.7 | 0.00 | 0.00 | 0.00 | 100 | 905.7 |
| 20260902034049 | 11 | 196 | 6.4 | 9.7 | 0.00 | 0.00 | 0.00 | 100 | 905.9 |
| 20260902033934 | 11 | 195 | 6.4 | 9.7 | 0.00 | 0.00 | 0.00 | 100 | 906.1 |
| 20260902033840 | 11 | 194 | 6.4 | 9.7 | 0.00 | 0.00 | 0.00 | 100 | 908.1 |
| 20260902033725 | 11 | 193 | 6.4 | 9.7 | 0.00 | 0.00 | 0.00 | 100 | 911.3 |
| 20260902033631 | 11 | 192 | 6.4 | 9.7 | 0.00 | 0.00 | 0.00 | 100 | 905.7 |
| 20260902033517 | 11 | 192 | 6.4 | 9.7 | 0.00 | 0.00 | 0.00 | 100 | 905.4 |
| 20260902033412 | 11 | 191 | 6.4 | 9.7 | 0.00 | 0.00 | 0.00 | 100 | 905.4 |
| 20260902033307 | 11 | 193 | 6.4 | 9.7 | 0.00 | 0.00 | 0.00 | 100 | 905.6 |
| 20260902033213 | 11 | 192 | 8.0 | 9.7 | 0.00 | 0.00 | 0.00 | 100 | 905.6 |
| 20260902033058 | 11 | 193 | 8.0 | 9.7 | 0.00 | 0.00 | 0.00 | 100 | 906.2 |
| 20260902033005 | 11 | 195 | 8.0 | 9.7 | 0.00 | 0.00 | 0.00 | 100 | 910.1 |
| 20260902032850 | 11 | 195 | 8.0 | 9.7 | 0.00 | 0.00 | 0.00 | 100 | 905.6 |
| 20260902032804 | 11 | 197 | 8.0 | 9.7 | 0.00 | 0.00 | 0.00 | 100 | 905.6 |
| 20260902032647 | 11 | 197 | 8.0 | 9.7 | 0.00 | 0.00 | 0.00 | 100 | 906.5 |
| 20260902032556 | 11 | 197 | 8.0 | 9.7 | 0.00 | 0.00 | 0.00 | 100 | 907.9 |
| 20260902032438 | 11 | 197 | 8.0 | 9.7 | 0.00 | 0.00 | 0.00 | 100 | 911.1 |
| 20260902032334 | 11 | 197 | 8.0 | 9.7 | 0.00 | 0.00 | 0.00 | 100 | 905.4 |
| 20260902032228 | 11 | 198 | 8.0 | 9.7 | 0.00 | 0.00 | 0.00 | 100 | 905.3 |
| 20260902032135 | 11 | 196 | 8.0 | 9.7 | 0.00 | 0.00 | 0.00 | 100 | 905.3 |
| 20260902032020 | 11 | 196 | 8.0 | 9.7 | 0.00 | 0.00 | 0.00 | 100 | 905.5 |
| 20260902031926 | 12 | 196 | 8.0 | 9.7 | 0.00 | 0.00 | 0.00 | 100 | 905.7 |
| 20260902031811 | 12 | 197 | 8.0 | 9.7 | 0.00 | 0.00 | 0.00 | 100 | 908.6 |
| 20260902031718 | 11 | 198 | 8.0 | 9.7 | 0.00 | 0.00 | 0.00 | 100 | 910.0 |
| 20260902031603 | 11 | 200 | 8.0 | 9.7 | 0.00 | 0.00 | 0.00 | 100 | 905.6 |
| 20260902031509 | 11 | 198 | 8.0 | 9.7 | 0.00 | 0.00 | 0.00 | 100 | 906.2 |
| 20260902031354 | 11 | 198 | 8.0 | 9.7 | 0.00 | 0.00 | 0.00 | 100 | 907.3 |
| 20260902031250 | 11 | 196 | 8.0 | 9.7 | 0.00 | 0.00 | 0.00 | 100 | 909.4 |
| 20260902031155 | 11 | 195 | 8.0 | 9.7 | 0.00 | 0.00 | 0.00 | 100 | 905.5 |
| 20260902031102 | 12 | 195 | 8.0 | 9.7 | 0.00 | 0.00 | 0.00 | 100 | 905.4 |
| 20260902030947 | 11 | 196 | 6.4 | 9.7 | 0.00 | 0.00 | 0.00 | 100 | 905.3 |
| 20260902030856 | 11 | 197 | 6.4 | 9.7 | 0.00 | 0.00 | 0.00 | 100 | 905.3 |
| 20260902030738 | 11 | 197 | 8.0 | 9.7 | 0.00 | 0.00 | 0.00 | 100 | 905.4 |
| 20260902030644 | 12 | 198 | 8.0 | 9.7 | 0.00 | 0.00 | 0.00 | 100 | 906.2 |
| 20260902030529 | 12 | 199 | 8.0 | 9.7 | 0.00 | 0.00 | 0.00 | 100 | 907.3 |
| 20260902030436 | 12 | 203 | 8.0 | 9.7 | 0.00 | 0.00 | 0.00 | 100 | 910.0 |
| 20260902030321 | 12 | 204 | 6.4 | 12.9 | 0.00 | 0.00 | 0.00 | 100 | 905.8 |
| 20260902030217 | 12 | 203 | 8.0 | 12.9 | 0.00 | 0.00 | 0.00 | 100 | 906.3 |
| 20260902030111 | 11 | 203 | 6.4 | 12.9 | 0.00 | 0.00 | 0.00 | 100 | 907.2 |
| 20260902030018 | 11 | 203 | 6.4 | 12.9 | 0.00 | 0.00 | 0.00 | 100 | 909.0 |
| 20260902025903 | 11 | 202 | 6.4 | 9.7 | 0.00 | 0.00 | 0.00 | 100 | 905.6 |
| 20260902025809 | 12 | 203 | 6.4 | 9.7 | 0.00 | 0.00 | 0.00 | 100 | 905.5 |
| 20260902025654 | 12 | 204 | 6.4 | 9.7 | 0.00 | 0.00 | 0.00 | 100 | 905.5 |
| 20260902025610 | 12 | 205 | 6.4 | 9.7 | 0.00 | 0.00 | 0.00 | 100 | 905.5 |
| 20260902025456 | 12 | 206 | 6.4 | 9.7 | 0.00 | 0.00 | 0.00 | 100 | 905.4 |
| 20260902025403 | 12 | 206 | 6.4 | 9.7 | 0.00 | 0.00 | 0.00 | 100 | 905.7 |
| 20260902025247 | 12 | 205 | 6.4 | 9.7 | 0.00 | 0.00 | 0.00 | 100 | 906.4 |
| 20260902025143 | 12 | 205 | 6.4 | 9.7 | 0.00 | 0.00 | 0.00 | 100 | 911.3 |
| 20260902025037 | 12 | 207 | 6.4 | 9.7 | 0.00 | 0.00 | 0.00 | 100 | 905.8 |
| 20260902024944 | 12 | 210 | 6.4 | 9.7 | 0.00 | 0.00 | 0.00 | 100 | 906.0 |
| 20260902024829 | 12 | 217 | 6.4 | 9.7 | 0.00 | 0.00 | 0.00 | 100 | 906.3 |
| 20260902024736 | 12 | 228 | 6.4 | 9.7 | 0.00 | 0.00 | 0.00 | 100 | 909.3 |
| 20260902024621 | 12 | 227 | 6.4 | 9.7 | 0.00 | 0.00 | 0.00 | 100 | 909.1 |
| 20260902024527 | 12 | 224 | 6.4 | 9.7 | 0.00 | 0.00 | 0.00 | 100 | 905.7 |
| 20260902024412 | 12 | 218 | 6.4 | 9.7 | 0.00 | 0.00 | 0.00 | 100 | 905.6 |
| 20260902024318 | 12 | 216 | 6.4 | 8.0 | 0.00 | 0.00 | 0.00 | 100 | 905.6 |
| 20260902024204 | 12 | 222 | 4.8 | 8.0 | 0.00 | 0.00 | 0.00 | 100 | 905.5 |
| 20260902024059 | 12 | 228 | 4.8 | 8.0 | 0.00 | 0.00 | 0.00 | 100 | 905.5 |
| 20260902023954 | 12 | 230 | 4.8 | 8.0 | 0.00 | 0.00 | 0.00 | 100 | 905.6 |
| 20260902023900 | 12 | 232 | 4.8 | 8.0 | 0.00 | 0.00 | 0.00 | 100 | 906.0 |
| 20260902023756 | 12 | 233 | 4.8 | 8.0 | 0.00 | 0.00 | 0.00 | 100 | 906.9 |
| 20260902023702 | 12 | 234 | 4.8 | 8.0 | 0.00 | 0.00 | 0.00 | 100 | 908.8 |
| 20260902023547 | 12 | 230 | 4.8 | 8.0 | 0.00 | 0.00 | 0.00 | 100 | 905.7 |
| 20260902023453 | 12 | 226 | 4.8 | 8.0 | 0.00 | 0.00 | 0.00 | 100 | 905.9 |
| 20260902023339 | 12 | 221 | 3.2 | 8.0 | 0.00 | 0.00 | 0.00 | 100 | 906.3 |
| 20260902023245 | 12 | 220 | 3.2 | 8.0 | 0.00 | 0.00 | 0.00 | 100 | 908.0 |
| 20260902023130 | 12 | 224 | 3.2 | 6.4 | 0.00 | 0.00 | 0.00 | 100 | 910.7 |
| 20260902023037 | 12 | 227 | 4.8 | 6.4 | 0.00 | 0.00 | 0.00 | 100 | 910.7 |
| 20260902023026 | 11 | 227 | 4.8 | 6.4 | 0.00 | 0.00 | 0.00 | 100 | 905.9 |
| 20260902022921 | 11 | 214 | 4.8 | 6.4 | 0.00 | 0.00 | 0.00 | 100 | 905.9 |
| 20260902022827 | 11 | 210 | 4.8 | 6.4 | 0.00 | 0.00 | 0.00 | 100 | 905.8 |
| 20260902022712 | 11 | 209 | 4.8 | 6.4 | 0.00 | 0.00 | 0.00 | 100 | 905.6 |
| 20260902022619 | 11 | 208 | 4.8 | 6.4 | 0.00 | 0.00 | 0.00 | 100 | 905.6 |
| 20260902022504 | 11 | 210 | 3.2 | 6.4 | 0.00 | 0.00 | 0.00 | 100 | 905.6 |
| 20260902022409 | 11 | 210 | 3.2 | 6.4 | 0.00 | 0.00 | 0.00 | 100 | 905.5 |
| 20260902022255 | 12 | 211 | 4.8 | 6.4 | 0.00 | 0.00 | 0.00 | 100 | 905.6 |
| 20260902022201 | 12 | 217 | 4.8 | 6.4 | 0.00 | 0.00 | 0.00 | 100 | 905.9 |
| 20260902022057 | 11 | 211 | 4.8 | 6.4 | 0.00 | 0.00 | 0.00 | 100 | 908.6 |
| 20260902022004 | 11 | 210 | 4.8 | 6.4 | 0.00 | 0.00 | 0.00 | 100 | 908.6 |
| 20260902021953 | 11 | 210 | 4.8 | 6.4 | 0.00 | 0.00 | 0.00 | 100 | 910.6 |
| 20260902021848 | 11 | 210 | 4.8 | 6.4 | 0.00 | 0.00 | 0.00 | 100 | 905.9 |
| 20260902021754 | 11 | 211 | 3.2 | 6.4 | 0.00 | 0.00 | 0.00 | 100 | 905.9 |
| 20260902021639 | 12 | 219 | 3.2 | 6.4 | 0.00 | 0.00 | 0.00 | 100 | 906.0 |
| 20260902021545 | 12 | 216 | 3.2 | 6.4 | 0.00 | 0.00 | 0.00 | 100 | 906.9 |
| 20260902021431 | 12 | 215 | 3.2 | 6.4 | 0.00 | 0.00 | 0.00 | 100 | 908.1 |
| 20260902021336 | 12 | 211 | 3.2 | 6.4 | 0.00 | 0.00 | 0.00 | 100 | 910.8 |
| 20260902021222 | 12 | 210 | 4.8 | 8.0 | 0.00 | 0.00 | 0.00 | 100 | 905.8 |
| 20260902021128 | 12 | 210 | 4.8 | 8.0 | 0.00 | 0.00 | 0.00 | 100 | 905.8 |
| 20260902021013 | 12 | 208 | 4.8 | 8.0 | 0.00 | 0.00 | 0.00 | 100 | 905.7 |
| 20260902020920 | 12 | 209 | 3.2 | 8.0 | 0.00 | 0.00 | 0.00 | 100 | 905.7 |
| 20260902020804 | 12 | 210 | 3.2 | 6.4 | 0.00 | 0.00 | 0.00 | 100 | 905.6 |
| 20260902020710 | 12 | 221 | 3.2 | 6.4 | 0.00 | 0.00 | 0.00 | 100 | 905.6 |
| 20260902020555 | 12 | 228 | 3.2 | 6.4 | 0.00 | 0.00 | 0.00 | 100 | 905.7 |
| 20260902020502 | 12 | 236 | 3.2 | 6.4 | 0.00 | 0.00 | 0.00 | 100 | 905.7 |
| 20260902020347 | 12 | 239 | 3.2 | 6.4 | 0.00 | 0.00 | 0.00 | 100 | 906.5 |
| 20260902020303 | 12 | 238 | 3.2 | 6.4 | 0.00 | 0.00 | 0.00 | 100 | 907.8 |
| 20260902020148 | 12 | 238 | 4.8 | 6.4 | 0.00 | 0.00 | 0.00 | 100 | 910.1 |
| 20260902020055 | 12 | 233 | 3.2 | 6.4 | 0.00 | 0.00 | 0.00 | 100 | 905.9 |
| 20260902015940 | 12 | 235 | 4.8 | 8.0 | 0.00 | 0.00 | 0.00 | 100 | 906.0 |
| 20260902015838 | 12 | 236 | 4.8 | 8.0 | 0.00 | 0.00 | 0.00 | 100 | 906.3 |
| 20260902015729 | 12 | 231 | 4.8 | 8.0 | 0.00 | 0.00 | 0.00 | 100 | 907.4 |
| 20260902015636 | 12 | 229 | 4.8 | 8.0 | 0.00 | 0.00 | 0.00 | 100 | 909.1 |
| 20260902015521 | 12 | 226 | 4.8 | 6.4 | 0.00 | 0.00 | 0.00 | 100 | 910.9 |
| 20260902015427 | 12 | 225 | 3.2 | 6.4 | 0.00 | 0.00 | 0.00 | 100 | 906.0 |
| 20260902015312 | 12 | 218 | 3.2 | 6.4 | 0.00 | 0.00 | 0.00 | 100 | 905.8 |
| 20260902015218 | 12 | 214 | 3.2 | 6.4 | 0.00 | 0.00 | 0.00 | 100 | 905.8 |
| 20260902015104 | 12 | 229 | 4.8 | 6.4 | 0.00 | 0.00 | 0.00 | 100 | 905.8 |
| 20260902015010 | 12 | 235 | 4.8 | 8.0 | 0.00 | 0.00 | 0.00 | 100 | 905.7 |
| 20260902014855 | 12 | 239 | 4.8 | 8.0 | 0.00 | 0.00 | 0.00 | 100 | 905.6 |
| 20260902014751 | 12 | 239 | 6.4 | 9.7 | 0.00 | 0.00 | 0.00 | 100 | 905.6 |
| 20260902014656 | 12 | 237 | 6.4 | 9.7 | 0.00 | 0.00 | 0.00 | 100 | 905.7 |
| 20260902014603 | 12 | 231 | 6.4 | 9.7 | 0.00 | 0.00 | 0.00 | 100 | 906.2 |
| 20260902014448 | 11 | 219 | 6.4 | 9.7 | 0.00 | 0.00 | 0.00 | 100 | 910.3 |
| 20260902014354 | 11 | 218 | 6.4 | 9.7 | 0.00 | 0.00 | 0.00 | 100 | 905.8 |
| 20260902014239 | 12 | 217 | 6.4 | 9.7 | 0.00 | 0.00 | 0.00 | 100 | 905.8 |
| 20260902014145 | 12 | 219 | 4.8 | 9.7 | 0.00 | 0.00 | 0.00 | 100 | 905.8 |
| 20260902014030 | 12 | 218 | 6.4 | 8.0 | 0.00 | 0.00 | 0.00 | 100 | 907.8 |
| 20260902013937 | 12 | 213 | 4.8 | 8.0 | 0.00 | 0.00 | 0.00 | 100 | 907.8 |
| 20260902013822 | 12 | 211 | 4.8 | 8.0 | 0.00 | 0.00 | 0.00 | 100 | 910.2 |
| 20260902013728 | 12 | 219 | 4.8 | 8.0 | 0.00 | 0.00 | 0.00 | 100 | 905.9 |
| 20260902013612 | 12 | 226 | 6.4 | 8.0 | 0.00 | 0.00 | 0.00 | 100 | 905.9 |
| 20260902013519 | 12 | 228 | 4.8 | 8.0 | 0.00 | 0.00 | 0.00 | 100 | 905.8 |
| 20260902013404 | 12 | 224 | 4.8 | 8.0 | 0.00 | 0.00 | 0.00 | 100 | 905.6 |
| 20260902013310 | 12 | 215 | 4.8 | 8.0 | 0.00 | 0.00 | 0.00 | 100 | 905.5 |
| 20260902013155 | 12 | 214 | 4.8 | 8.0 | 0.00 | 0.00 | 0.00 | 100 | 905.8 |
| 20260902013111 | 12 | 216 | 4.8 | 8.0 | 0.00 | 0.00 | 0.00 | 100 | 906.2 |
| 20260902012957 | 12 | 221 | 4.8 | 8.0 | 0.00 | 0.00 | 0.00 | 100 | 909.9 |
| 20260902012903 | 12 | 228 | 4.8 | 8.0 | 0.00 | 0.00 | 0.00 | 100 | 909.9 |
| 20260902012749 | 12 | 227 | 4.8 | 8.0 | 0.00 | 0.00 | 0.00 | 100 | 907.0 |
| 20260902012644 | 12 | 220 | 4.8 | 8.0 | 0.00 | 0.00 | 0.00 | 100 | 905.9 |
| 20260902012539 | 12 | 218 | 4.8 | 8.0 | 0.00 | 0.00 | 0.00 | 100 | 906.4 |
| 20260902012446 | 12 | 211 | 4.8 | 8.0 | 0.00 | 0.00 | 0.00 | 100 | 907.2 |
| 20260902012331 | 12 | 211 | 4.8 | 8.0 | 0.00 | 0.00 | 0.00 | 100 | 908.9 |
| 20260902012237 | 12 | 219 | 4.8 | 9.7 | 0.00 | 0.00 | 0.00 | 100 | 911.5 |
| 20260902012122 | 12 | 225 | 6.4 | 9.7 | 0.00 | 0.00 | 0.00 | 100 | 905.8 |
| 20260902012028 | 12 | 223 | 6.4 | 9.7 | 0.00 | 0.00 | 0.00 | 100 | 905.7 |
| 20260902011914 | 11 | 222 | 6.4 | 9.7 | 0.00 | 0.00 | 0.00 | 100 | 905.6 |
| 20260902011820 | 11 | 219 | 6.4 | 8.0 | 0.00 | 0.00 | 0.00 | 100 | 905.5 |
| 20260902011705 | 12 | 219 | 6.4 | 8.0 | 0.00 | 0.00 | 0.00 | 100 | 905.8 |
| 20260902011600 | 12 | 226 | 6.4 | 8.0 | 0.00 | 0.00 | 0.00 | 100 | 906.5 |
| 20260902011455 | 12 | 228 | 6.4 | 8.0 | 0.00 | 0.00 | 0.00 | 100 | 908.3 |
| 20260902011412 | 12 | 226 | 6.4 | 8.0 | 0.00 | 0.00 | 0.00 | 100 | 908.3 |
| 20260902011258 | 12 | 225 | 6.4 | 8.0 | 0.00 | 0.00 | 0.00 | 100 | 905.8 |
| 20260902011204 | 12 | 222 | 4.8 | 8.0 | 0.00 | 0.00 | 0.00 | 100 | 906.0 |
| 20260902011049 | 12 | 227 | 6.4 | 9.7 | 0.00 | 0.00 | 0.00 | 100 | 906.3 |
| 20260902010955 | 12 | 230 | 6.4 | 9.7 | 0.00 | 0.00 | 0.00 | 100 | 907.7 |
| 20260902010840 | 12 | 228 | 6.4 | 9.7 | 0.00 | 0.00 | 0.00 | 100 | 909.9 |
| 20260902010747 | 12 | 221 | 6.4 | 9.7 | 0.00 | 0.00 | 0.00 | 100 | 906.5 |
| 20260902010632 | 12 | 217 | 6.4 | 9.7 | 0.00 | 0.00 | 0.00 | 100 | 905.7 |
| 20260902010527 | 12 | 214 | 6.4 | 9.7 | 0.00 | 0.00 | 0.00 | 100 | 905.5 |
| 20260902010422 | 12 | 217 | 6.4 | 9.7 | 0.00 | 0.00 | 0.00 | 100 | 905.5 |
| 20260902010329 | 12 | 225 | 4.8 | 8.0 | 0.00 | 0.00 | 0.00 | 100 | 905.5 |
| 20260902010213 | 12 | 220 | 4.8 | 6.4 | 0.00 | 0.00 | 0.00 | 100 | 906.4 |
| 20260902010120 | 12 | 210 | 4.8 | 6.4 | 0.00 | 0.00 | 0.00 | 100 | 906.4 |
| 20260902010005 | 12 | 208 | 4.8 | 6.4 | 0.00 | 0.00 | 0.00 | 100 | 907.7 |
| 20260902005910 | 11 | 208 | 4.8 | 6.4 | 0.00 | 0.00 | 0.00 | 100 | 910.3 |
| 20260902005756 | 11 | 209 | 3.2 | 6.4 | 0.00 | 0.00 | 0.00 | 100 | 905.9 |
| 20260902005715 | 12 | 212 | 3.2 | 6.4 | 0.00 | 0.00 | 0.00 | 100 | 905.9 |
| 20260902005558 | 12 | 227 | 3.2 | 8.0 | 0.00 | 0.00 | 0.00 | 100 | 906.0 |
| 20260902005454 | 12 | 232 | 4.8 | 8.0 | 0.00 | 0.00 | 0.00 | 100 | 907.0 |
| 20260902005348 | 12 | 228 | 4.8 | 8.0 | 0.00 | 0.00 | 0.00 | 100 | 908.1 |
| 20260902005255 | 12 | 221 | 4.8 | 9.7 | 0.00 | 0.00 | 0.00 | 100 | 910.8 |
| 20260902005140 | 12 | 212 | 4.8 | 9.7 | 0.00 | 0.00 | 0.00 | 100 | 906.0 |
| 20260902005047 | 12 | 210 | 4.8 | 9.7 | 0.00 | 0.00 | 0.00 | 100 | 906.0 |
| 20260902004931 | 12 | 209 | 4.8 | 9.7 | 0.00 | 0.00 | 0.00 | 100 | 905.8 |
| 20260902004837 | 12 | 209 | 4.8 | 8.0 | 0.00 | 0.00 | 0.00 | 100 | 905.7 |
| 20260902004723 | 12 | 208 | 6.4 | 9.7 | 0.00 | 0.00 | 0.00 | 100 | 905.6 |
| 20260902004629 | 12 | 207 | 6.4 | 9.7 | 0.00 | 0.00 | 0.00 | 100 | 906.0 |
| 20260902004514 | 12 | 207 | 6.4 | 9.7 | 0.00 | 0.00 | 0.00 | 100 | 907.0 |
| 20260902004410 | 12 | 209 | 6.4 | 9.7 | 0.00 | 0.00 | 0.00 | 100 | 908.9 |
| 20260902004310 | 12 | 216 | 6.4 | 9.7 | 0.00 | 0.00 | 0.00 | 100 | 906.1 |
| 20260902004216 | 12 | 225 | 6.4 | 9.7 | 0.00 | 0.00 | 0.00 | 100 | 906.5 |
| 20260902004101 | 12 | 226 | 8.0 | 11.3 | 0.00 | 0.00 | 0.00 | 100 | 907.6 |
| 20260902004008 | 12 | 224 | 8.0 | 11.3 | 0.00 | 0.00 | 0.00 | 100 | 905.6 |
| 20260902003852 | 12 | 223 | 8.0 | 11.3 | 0.00 | 0.00 | 0.00 | 100 | 905.4 |
| 20260902003758 | 12 | 226 | 8.0 | 12.9 | 0.00 | 0.00 | 0.00 | 100 | 905.4 |
| 20260902003643 | 12 | 224 | 8.0 | 12.9 | 0.00 | 0.00 | 0.00 | 100 | 905.4 |
| 20260902003550 | 12 | 227 | 9.7 | 12.9 | 0.00 | 0.00 | 0.00 | 100 | 905.5 |
| 20260902003435 | 12 | 229 | 9.7 | 12.9 | 0.00 | 0.00 | 0.00 | 100 | 906.4 |
| 20260902003331 | 12 | 228 | 9.7 | 12.9 | 0.00 | 0.00 | 0.00 | 100 | 908.0 |
| 20260902003226 | 12 | 234 | 8.0 | 12.9 | 0.00 | 0.00 | 0.00 | 100 | 910.9 |
| 20260902003131 | 12 | 235 | 8.0 | 12.9 | 0.00 | 0.00 | 0.00 | 100 | 905.9 |
| 20260902003017 | 12 | 235 | 8.0 | 11.3 | 0.00 | 0.00 | 0.00 | 100 | 906.6 |
| 20260902002924 | 12 | 235 | 8.0 | 11.3 | 0.00 | 0.00 | 0.00 | 100 | 907.7 |
| 20260902002808 | 12 | 235 | 8.0 | 11.3 | 0.00 | 0.00 | 0.00 | 100 | 905.7 |
| 20260902002725 | 12 | 238 | 8.0 | 9.7 | 0.00 | 0.00 | 0.00 | 100 | 905.7 |
| 20260902002610 | 12 | 241 | 6.4 | 9.7 | 0.00 | 0.00 | 0.00 | 100 | 905.6 |
| 20260902002517 | 12 | 241 | 6.4 | 9.7 | 0.00 | 0.00 | 0.00 | 100 | 905.6 |
| 20260902002402 | 12 | 241 | 6.4 | 9.7 | 0.00 | 0.00 | 0.00 | 100 | 905.5 |
| 20260902002257 | 12 | 239 | 6.4 | 9.7 | 0.00 | 0.00 | 0.00 | 100 | 905.8 |
| 20260902002152 | 12 | 239 | 6.4 | 9.7 | 0.00 | 0.00 | 0.00 | 100 | 906.5 |
| 20260902002059 | 12 | 239 | 6.4 | 9.7 | 0.00 | 0.00 | 0.00 | 100 | 908.0 |
| 20260902001944 | 12 | 241 | 6.4 | 9.7 | 0.00 | 0.00 | 0.00 | 100 | 905.9 |
| 20260902001850 | 12 | 242 | 4.8 | 8.0 | 0.00 | 0.00 | 0.00 | 100 | 906.0 |
| 20260902001735 | 12 | 242 | 4.8 | 8.0 | 0.00 | 0.00 | 0.00 | 100 | 905.9 |
| 20260902001641 | 12 | 241 | 4.8 | 8.0 | 0.00 | 0.00 | 0.00 | 100 | 906.1 |
| 20260902001526 | 12 | 239 | 4.8 | 8.0 | 0.00 | 0.00 | 0.00 | 100 | 907.1 |
| 20260902001439 | 12 | 237 | 6.4 | 8.0 | 0.00 | 0.00 | 0.00 | 100 | 908.5 |
| 20260902001318 | 12 | 235 | 6.4 | 8.0 | 0.00 | 0.00 | 0.00 | 100 | 912.7 |
| 20260902001225 | 12 | 232 | 6.4 | 8.0 | 0.00 | 0.00 | 0.00 | 100 | 912.7 |
| 20260902001214 | 12 | 232 | 6.4 | 8.0 | 0.00 | 0.00 | 0.00 | 100 | 906.0 |
| 20260902001108 | 12 | 228 | 4.8 | 8.0 | 0.00 | 0.00 | 0.00 | 100 | 905.9 |
| 20260902001025 | 12 | 226 | 4.8 | 8.0 | 0.00 | 0.00 | 0.00 | 100 | 905.9 |
| 20260902000911 | 12 | 224 | 4.8 | 8.0 | 0.00 | 0.00 | 0.00 | 100 | 906.0 |
| 20260902000817 | 12 | 226 | 3.2 | 8.0 | 0.00 | 0.00 | 0.00 | 100 | 905.9 |
| 20260902000702 | 12 | 230 | 3.2 | 6.4 | 0.00 | 0.00 | 0.00 | 100 | 906.6 |
| 20260902000607 | 12 | 236 | 3.2 | 4.8 | 0.00 | 0.00 | 0.00 | 100 | 907.7 |
| 20260902000453 | 12 | 240 | 1.6 | 4.8 | 0.00 | 0.00 | 0.00 | 100 | 909.8 |
| 20260902000359 | 12 | 252 | 1.6 | 6.4 | 0.00 | 0.00 | 0.00 | 100 | 906.5 |
| 20260902000244 | 12 | 257 | 1.6 | 6.4 | 0.00 | 0.00 | 0.00 | 100 | 906.4 |
| 20260902000140 | 11 | 255 | 1.6 | 6.4 | 0.00 | 0.00 | 0.00 | 100 | 906.5 |
| 20260902000035 | 11 | 248 | 1.6 | 6.4 | 0.00 | 0.00 | 0.00 | 100 | 906.5 |
| 20260901235941 | 11 | 248 | 1.6 | 6.4 | 0.00 | 0.00 | 0.00 | 100 | 906.5 |
| 20260901235826 | 12 | 264 | 1.6 | 6.4 | 0.00 | 0.00 | 0.00 | 100 | 906.4 |
| 20260901235732 | 12 | 277 | 1.6 | 6.4 | 0.00 | 0.00 | 0.00 | 100 | 906.2 |
| 20260901235618 | 12 | 279 | 3.2 | 6.4 | 0.00 | 0.00 | 0.00 | 100 | 906.2 |
| 20260901235523 | 12 | 283 | 3.2 | 6.4 | 0.00 | 0.00 | 0.00 | 100 | 906.2 |
| 20260901235409 | 12 | 281 | 3.2 | 6.4 | 0.00 | 0.00 | 0.00 | 100 | 906.1 |
| 20260901235326 | 12 | 283 | 3.2 | 6.4 | 0.00 | 0.00 | 0.00 | 100 | 906.1 |
| 20260901235211 | 12 | 284 | 1.6 | 6.4 | 0.00 | 0.00 | 0.00 | 100 | 906.5 |
| 20260901235107 | 12 | 255 | 1.6 | 4.8 | 0.00 | 0.00 | 0.00 | 100 | 907.1 |
| 20260901235001 | 12 | 246 | 1.6 | 3.2 | 0.00 | 0.00 | 0.00 | 100 | 908.2 |
| 20260901234908 | 12 | 247 | 1.6 | 3.2 | 0.00 | 0.00 | 0.00 | 100 | 908.2 |
| 20260901234753 | 12 | 250 | 1.6 | 3.2 | 0.00 | 0.00 | 0.00 | 100 | 906.4 |
| 20260901234700 | 12 | 244 | 1.6 | 3.2 | 0.00 | 0.00 | 0.00 | 100 | 906.4 |
| 20260901234545 | 12 | 245 | 1.6 | 4.8 | 0.00 | 0.00 | 0.00 | 100 | 906.3 |
| 20260901234450 | 12 | 239 | 3.2 | 6.4 | 0.00 | 0.00 | 0.00 | 100 | 906.5 |
| 20260901234336 | 12 | 239 | 3.2 | 6.4 | 0.00 | 0.00 | 0.00 | 100 | 906.2 |
| 20260901234241 | 12 | 239 | 3.2 | 6.4 | 0.00 | 0.00 | 0.00 | 100 | 906.2 |
| 20260901234127 | 12 | 237 | 3.2 | 6.4 | 0.00 | 0.00 | 0.00 | 100 | 906.2 |
| 20260901234023 | 12 | 240 | 3.2 | 6.4 | 0.00 | 0.00 | 0.00 | 100 | 906.1 |
| 20260901233918 | 12 | 242 | 3.2 | 4.8 | 0.00 | 0.00 | 0.00 | 100 | 906.1 |
| 20260901233824 | 12 | 244 | 3.2 | 4.8 | 0.00 | 0.00 | 0.00 | 100 | 906.1 |
| 20260901233709 | 12 | 252 | 3.2 | 6.4 | 0.00 | 0.00 | 0.00 | 100 | 906.0 |
| 20260901233626 | 12 | 253 | 3.2 | 6.4 | 0.00 | 0.00 | 0.00 | 100 | 906.0 |
| 20260901233512 | 12 | 259 | 3.2 | 6.4 | 0.00 | 0.00 | 0.00 | 100 | 907.6 |
| 20260901233417 | 12 | 261 | 3.2 | 6.4 | 0.00 | 0.00 | 0.00 | 100 | 907.6 |
| 20260901233302 | 12 | 257 | 1.6 | 6.4 | 0.00 | 0.00 | 0.00 | 100 | 909.6 |
| 20260901233209 | 12 | 258 | 1.6 | 6.4 | 0.00 | 0.00 | 0.00 | 100 | 910.2 |
| 20260901233054 | 12 | 255 | 3.2 | 6.4 | 0.00 | 0.00 | 0.00 | 100 | 906.2 |
| 20260901232950 | 12 | 254 | 3.2 | 6.4 | 0.00 | 0.00 | 0.00 | 100 | 906.1 |
| 20260901232844 | 12 | 252 | 3.2 | 6.4 | 0.00 | 0.00 | 0.00 | 100 | 905.9 |
| 20260901232750 | 12 | 240 | 4.8 | 6.4 | 0.00 | 0.00 | 0.00 | 100 | 905.9 |
| 20260901232636 | 12 | 241 | 4.8 | 6.4 | 0.00 | 0.00 | 0.00 | 100 | 905.8 |
| 20260901232543 | 12 | 239 | 4.8 | 8.0 | 0.00 | 0.00 | 0.00 | 100 | 905.6 |
| 20260901232428 | 12 | 237 | 4.8 | 8.0 | 0.00 | 0.00 | 0.00 | 100 | 905.5 |
| 20260901232334 | 12 | 237 | 4.8 | 8.0 | 0.00 | 0.00 | 0.00 | 100 | 905.4 |
| 20260901232219 | 12 | 228 | 4.8 | 8.0 | 0.00 | 0.00 | 0.00 | 100 | 905.4 |
| 20260901232125 | 12 | 228 | 4.8 | 8.0 | 0.00 | 0.00 | 0.00 | 100 | 905.4 |
| 20260901232010 | 12 | 226 | 3.2 | 6.4 | 0.00 | 0.00 | 0.00 | 100 | 905.5 |
| 20260901231917 | 12 | 224 | 3.2 | 6.4 | 0.00 | 0.00 | 0.00 | 100 | 906.4 |
| 20260901231811 | 12 | 229 | 4.8 | 8.0 | 0.00 | 0.00 | 0.00 | 100 | 907.6 |
| 20260901231718 | 12 | 232 | 4.8 | 8.0 | 0.00 | 0.00 | 0.00 | 100 | 910.3 |
| 20260901231604 | 12 | 230 | 4.8 | 8.0 | 0.00 | 0.00 | 0.00 | 100 | 910.2 |
| 20260901231509 | 12 | 231 | 4.8 | 8.0 | 0.00 | 0.00 | 0.00 | 100 | 906.1 |
| 20260901231355 | 12 | 231 | 4.8 | 8.0 | 0.00 | 0.00 | 0.00 | 100 | 905.9 |
| 20260901231300 | 12 | 230 | 4.8 | 8.0 | 0.00 | 0.00 | 0.00 | 100 | 906.0 |
| 20260901231145 | 12 | 232 | 3.2 | 8.0 | 0.00 | 0.00 | 0.00 | 100 | 905.9 |
| 20260901231051 | 12 | 225 | 3.2 | 8.0 | 0.00 | 0.00 | 0.00 | 100 | 905.9 |
| 20260901230936 | 12 | 227 | 3.2 | 6.4 | 0.00 | 0.00 | 0.00 | 100 | 905.8 |
| 20260901230832 | 12 | 227 | 4.8 | 6.4 | 0.00 | 0.00 | 0.00 | 100 | 905.8 |
| 20260901230727 | 12 | 229 | 4.8 | 6.4 | 0.00 | 0.00 | 0.00 | 100 | 905.7 |
| 20260901230632 | 12 | 232 | 4.8 | 6.4 | 0.00 | 0.00 | 0.00 | 100 | 906.1 |
| 20260901230518 | 12 | 233 | 4.8 | 6.4 | 0.00 | 0.00 | 0.00 | 100 | 906.6 |
| 20260901230425 | 12 | 230 | 4.8 | 6.4 | 0.00 | 0.00 | 0.00 | 100 | 910.3 |
| 20260901230310 | 12 | 222 | 4.8 | 6.4 | 0.00 | 0.00 | 0.00 | 100 | 905.9 |
| 20260901230226 | 12 | 224 | 4.8 | 8.0 | 0.00 | 0.00 | 0.00 | 100 | 906.0 |
| 20260901230111 | 12 | 225 | 4.8 | 8.0 | 0.00 | 0.00 | 0.00 | 100 | 906.0 |
| 20260901230018 | 12 | 227 | 4.8 | 8.0 | 0.00 | 0.00 | 0.00 | 100 | 906.2 |
| 20260901225903 | 12 | 230 | 4.8 | 8.0 | 0.00 | 0.00 | 0.00 | 100 | 906.6 |
| 20260901225809 | 12 | 227 | 4.8 | 8.0 | 0.00 | 0.00 | 0.00 | 100 | 906.6 |
| 20260901225759 | 12 | 227 | 4.8 | 8.0 | 0.00 | 0.00 | 0.00 | 100 | 907.6 |
| 20260901225653 | 12 | 232 | 4.8 | 8.0 | 0.00 | 0.00 | 0.00 | 100 | 907.6 |
| 20260901225600 | 12 | 229 | 4.8 | 8.0 | 0.00 | 0.00 | 0.00 | 100 | 911.6 |
| 20260901225445 | 12 | 228 | 4.8 | 8.0 | 0.00 | 0.00 | 0.00 | 100 | 906.2 |
| 20260901225351 | 12 | 229 | 4.8 | 8.0 | 0.00 | 0.00 | 0.00 | 100 | 906.2 |
| 20260901225237 | 12 | 228 | 4.8 | 8.0 | 0.00 | 0.00 | 0.00 | 100 | 906.1 |
| 20260901225143 | 12 | 228 | 4.8 | 6.4 | 0.00 | 0.00 | 0.00 | 100 | 906.2 |
| 20260901225028 | 12 | 228 | 3.2 | 6.4 | 0.00 | 0.00 | 0.00 | 100 | 906.2 |
| 20260901224934 | 12 | 223 | 3.2 | 6.4 | 0.00 | 0.00 | 0.00 | 100 | 906.3 |
| 20260901224819 | 12 | 224 | 3.2 | 6.4 | 0.00 | 0.00 | 0.00 | 100 | 906.6 |
| 20260901224715 | 12 | 227 | 3.2 | 6.4 | 0.00 | 0.00 | 0.00 | 100 | 909.2 |
| 20260901224610 | 12 | 230 | 3.2 | 6.4 | 0.00 | 0.00 | 0.00 | 100 | 911.5 |
| 20260901224527 | 12 | 230 | 3.2 | 6.4 | 0.00 | 0.00 | 0.00 | 100 | 911.5 |
| 20260901224412 | 12 | 231 | 3.2 | 6.4 | 0.00 | 0.00 | 0.00 | 100 | 906.4 |
| 20260901224318 | 12 | 229 | 3.2 | 6.4 | 0.00 | 0.00 | 0.00 | 100 | 906.3 |
| 20260901224203 | 12 | 225 | 3.2 | 6.4 | 0.00 | 0.00 | 0.00 | 100 | 906.2 |
| 20260901224109 | 12 | 210 | 3.2 | 6.4 | 0.00 | 0.00 | 0.00 | 100 | 906.1 |
| 20260901223955 | 12 | 210 | 3.2 | 6.4 | 0.00 | 0.00 | 0.00 | 100 | 906.0 |
| 20260901223901 | 12 | 210 | 3.2 | 6.4 | 0.00 | 0.00 | 0.00 | 100 | 906.0 |
| 20260901223746 | 12 | 210 | 3.2 | 6.4 | 0.00 | 0.00 | 0.00 | 100 | 905.9 |
| 20260901223642 | 12 | 210 | 3.2 | 6.4 | 0.00 | 0.00 | 0.00 | 100 | 905.9 |
| 20260901223536 | 12 | 215 | 3.2 | 6.4 | 0.00 | 0.00 | 0.00 | 100 | 906.1 |
| 20260901223443 | 12 | 227 | 3.2 | 6.4 | 0.00 | 0.00 | 0.00 | 100 | 906.6 |
| 20260901223328 | 12 | 227 | 3.2 | 6.4 | 0.00 | 0.00 | 0.00 | 100 | 907.7 |
| 20260901223235 | 12 | 227 | 3.2 | 6.4 | 0.00 | 0.00 | 0.00 | 100 | 907.7 |
| 20260901223120 | 12 | 227 | 3.2 | 6.4 | 0.00 | 0.00 | 0.00 | 100 | 906.1 |
| 20260901223025 | 12 | 233 | 3.2 | 6.4 | 0.00 | 0.00 | 0.00 | 100 | 906.1 |
| 20260901222911 | 12 | 235 | 3.2 | 6.4 | 0.00 | 0.00 | 0.00 | 100 | 906.1 |
| 20260901222827 | 12 | 238 | 3.2 | 6.4 | 0.00 | 0.00 | 0.00 | 100 | 906.2 |
| 20260901222713 | 12 | 236 | 3.2 | 6.4 | 0.00 | 0.00 | 0.00 | 100 | 906.5 |
| 20260901222608 | 12 | 235 | 3.2 | 6.4 | 0.00 | 0.00 | 0.00 | 100 | 907.0 |
| 20260901222503 | 12 | 236 | 3.2 | 6.4 | 0.00 | 0.00 | 0.00 | 100 | 908.1 |
| 20260901222409 | 12 | 235 | 3.2 | 6.4 | 0.00 | 0.00 | 0.00 | 100 | 907.7 |
| 20260901222255 | 12 | 235 | 3.2 | 6.4 | 0.00 | 0.00 | 0.00 | 100 | 906.3 |
| 20260901222202 | 12 | 237 | 3.2 | 6.4 | 0.00 | 0.00 | 0.00 | 100 | 906.2 |
| 20260901222046 | 12 | 239 | 3.2 | 6.4 | 0.00 | 0.00 | 0.00 | 100 | 906.2 |
| 20260901221952 | 12 | 239 | 4.8 | 6.4 | 0.00 | 0.00 | 0.00 | 100 | 906.2 |
| 20260901221838 | 12 | 241 | 4.8 | 6.4 | 0.00 | 0.00 | 0.00 | 100 | 906.2 |
| 20260901221744 | 12 | 241 | 4.8 | 6.4 | 0.00 | 0.00 | 0.00 | 100 | 906.2 |
| 20260901221629 | 12 | 245 | 4.8 | 6.4 | 0.00 | 0.00 | 0.00 | 100 | 906.3 |
| 20260901221524 | 12 | 246 | 4.8 | 6.4 | 0.00 | 0.00 | 0.00 | 100 | 906.6 |
| 20260901221419 | 12 | 250 | 3.2 | 6.4 | 0.00 | 0.00 | 0.00 | 100 | 907.7 |
| 20260901221326 | 12 | 250 | 3.2 | 6.4 | 0.00 | 0.00 | 0.00 | 100 | 909.8 |
| 20260901221211 | 12 | 262 | 3.2 | 6.4 | 0.00 | 0.00 | 0.00 | 100 | 906.3 |
| 20260901221128 | 12 | 266 | 3.2 | 8.0 | 0.00 | 0.00 | 0.00 | 100 | 906.3 |
| 20260901221013 | 12 | 272 | 3.2 | 8.0 | 0.00 | 0.00 | 0.00 | 100 | 906.3 |
| 20260901220918 | 12 | 274 | 3.2 | 8.0 | 0.00 | 0.00 | 0.00 | 100 | 906.2 |
| 20260901220804 | 12 | 275 | 3.2 | 8.0 | 0.00 | 0.00 | 0.00 | 100 | 906.2 |
| 20260901220709 | 12 | 270 | 3.2 | 6.4 | 0.00 | 0.00 | 0.00 | 100 | 906.2 |
| 20260901220555 | 12 | 272 | 3.2 | 6.4 | 0.00 | 0.00 | 0.00 | 100 | 906.1 |
| 20260901220451 | 12 | 267 | 3.2 | 6.4 | 0.00 | 0.00 | 0.00 | 100 | 906.0 |
| 20260901220345 | 12 | 268 | 3.2 | 6.4 | 0.00 | 0.00 | 0.00 | 100 | 906.0 |
| 20260901220251 | 12 | 273 | 3.2 | 11.3 | 0.00 | 0.00 | 0.00 | 100 | 906.0 |
| 20260901220137 | 12 | 287 | 4.8 | 12.9 | 0.00 | 0.00 | 0.00 | 100 | 906.0 |
| 20260901220044 | 12 | 291 | 6.4 | 12.9 | 0.00 | 0.00 | 0.00 | 100 | 906.9 |
| 20260901215929 | 12 | 290 | 6.4 | 12.9 | 0.00 | 0.00 | 0.00 | 100 | 908.7 |
| 20260901215832 | 12 | 287 | 4.8 | 9.7 | 0.00 | 0.00 | 0.00 | 100 | 910.8 |
| 20260901215726 | 12 | 281 | 3.2 | 9.7 | 0.00 | 0.00 | 0.00 | 100 | 906.2 |
| 20260901215632 | 12 | 279 | 3.2 | 9.7 | 0.00 | 0.00 | 0.00 | 100 | 906.3 |
| 20260901215517 | 12 | 275 | 3.2 | 9.7 | 0.00 | 0.00 | 0.00 | 100 | 906.3 |
| 20260901215424 | 12 | 275 | 3.2 | 9.7 | 0.00 | 0.00 | 0.00 | 100 | 906.3 |
| 20260901215413 | 12 | 275 | 3.2 | 9.7 | 0.00 | 0.00 | 0.00 | 100 | 906.5 |
| 20260901215307 | 12 | 270 | 3.2 | 9.7 | 0.00 | 0.00 | 0.00 | 100 | 906.5 |
| 20260901215214 | 12 | 274 | 3.2 | 9.7 | 0.00 | 0.00 | 0.00 | 100 | 908.0 |
| 20260901215059 | 12 | 277 | 3.2 | 9.7 | 0.00 | 0.00 | 0.00 | 100 | 910.0 |
| 20260901215006 | 12 | 275 | 3.2 | 9.7 | 0.00 | 0.00 | 0.00 | 100 | 909.3 |
| 20260901214851 | 12 | 270 | 3.2 | 6.4 | 0.00 | 0.00 | 0.00 | 100 | 906.3 |
| 20260901214756 | 12 | 256 | 3.2 | 6.4 | 0.00 | 0.00 | 0.00 | 100 | 906.4 |
| 20260901214642 | 12 | 257 | 3.2 | 6.4 | 0.00 | 0.00 | 0.00 | 100 | 906.3 |
| 20260901214548 | 12 | 255 | 3.2 | 6.4 | 0.00 | 0.00 | 0.00 | 100 | 906.2 |
| 20260901214433 | 12 | 262 | 3.2 | 6.4 | 0.00 | 0.00 | 0.00 | 100 | 906.2 |
| 20260901214329 | 12 | 268 | 3.2 | 8.0 | 0.00 | 0.00 | 0.00 | 100 | 906.1 |
| 20260901214223 | 12 | 273 | 3.2 | 8.0 | 0.00 | 0.00 | 0.00 | 100 | 906.1 |
| 20260901214130 | 12 | 273 | 3.2 | 8.0 | 0.00 | 0.00 | 0.00 | 100 | 906.1 |
| 20260901214015 | 12 | 272 | 3.2 | 8.0 | 0.00 | 0.00 | 0.00 | 100 | 907.3 |
| 20260901213932 | 12 | 272 | 3.2 | 8.0 | 0.00 | 0.00 | 0.00 | 100 | 907.3 |
| 20260901213817 | 12 | 267 | 3.2 | 6.4 | 0.00 | 0.00 | 0.00 | 100 | 908.8 |
| 20260901213724 | 12 | 273 | 3.2 | 12.9 | 0.00 | 0.00 | 0.00 | 100 | 906.1 |
| 20260901213608 | 12 | 275 | 4.8 | 12.9 | 0.00 | 0.00 | 0.00 | 100 | 906.2 |
| 20260901213515 | 12 | 279 | 4.8 | 12.9 | 0.00 | 0.00 | 0.00 | 100 | 906.1 |
| 20260901213400 | 12 | 279 | 6.4 | 12.9 | 0.00 | 0.00 | 0.00 | 100 | 905.9 |
| 20260901213255 | 12 | 286 | 4.8 | 11.3 | 0.00 | 0.00 | 0.00 | 100 | 905.8 |
| 20260901213150 | 12 | 287 | 4.8 | 11.3 | 0.00 | 0.00 | 0.00 | 100 | 905.8 |
| 20260901213056 | 12 | 286 | 4.8 | 11.3 | 0.00 | 0.00 | 0.00 | 100 | 905.7 |
| 20260901212942 | 12 | 283 | 4.8 | 11.3 | 0.00 | 0.00 | 0.00 | 100 | 905.7 |
| 20260901212848 | 12 | 277 | 3.2 | 9.7 | 0.00 | 0.00 | 0.00 | 100 | 905.7 |
| 20260901212733 | 12 | 271 | 3.2 | 6.4 | 0.00 | 0.00 | 0.00 | 100 | 905.7 |
| 20260901212639 | 12 | 271 | 3.2 | 8.0 | 0.00 | 0.00 | 0.00 | 100 | 905.7 |
| 20260901212524 | 12 | 270 | 3.2 | 8.0 | 0.00 | 0.00 | 0.00 | 100 | 906.2 |
| 20260901212430 | 12 | 272 | 4.8 | 9.7 | 0.00 | 0.00 | 0.00 | 100 | 906.9 |
| 20260901212316 | 12 | 273 | 4.8 | 9.7 | 0.00 | 0.00 | 0.00 | 100 | 908.5 |
| 20260901212225 | 12 | 281 | 4.8 | 9.7 | 0.00 | 0.00 | 0.00 | 100 | 914.6 |
| 20260901212116 | 12 | 281 | 4.8 | 11.3 | 0.00 | 0.00 | 0.00 | 100 | 907.3 |
| 20260901212023 | 12 | 282 | 4.8 | 11.3 | 0.00 | 0.00 | 0.00 | 100 | 906.2 |
| 20260901211908 | 12 | 281 | 4.8 | 11.3 | 0.00 | 0.00 | 0.00 | 100 | 906.1 |
| 20260901211814 | 12 | 279 | 4.8 | 11.3 | 0.00 | 0.00 | 0.00 | 100 | 906.1 |
| 20260901211659 | 12 | 276 | 3.2 | 11.3 | 0.00 | 0.00 | 0.00 | 100 | 906.1 |
| 20260901211606 | 12 | 279 | 3.2 | 9.7 | 0.00 | 0.00 | 0.00 | 100 | 906.1 |
| 20260901211450 | 12 | 278 | 4.8 | 9.7 | 0.00 | 0.00 | 0.00 | 100 | 906.0 |
| 20260901211357 | 12 | 282 | 4.8 | 9.7 | 0.00 | 0.00 | 0.00 | 100 | 905.9 |
| 20260901211242 | 12 | 285 | 4.8 | 9.7 | 0.00 | 0.00 | 0.00 | 100 | 905.7 |
| 20260901211137 | 12 | 288 | 4.8 | 9.7 | 0.00 | 0.00 | 0.00 | 100 | 905.9 |
| 20260901211032 | 12 | 288 | 3.2 | 9.7 | 0.00 | 0.00 | 0.00 | 100 | 906.3 |
| 20260901210939 | 12 | 294 | 4.8 | 11.3 | 0.00 | 0.00 | 0.00 | 100 | 909.0 |
| 20260901210824 | 12 | 293 | 4.8 | 11.3 | 0.00 | 0.00 | 0.00 | 100 | 910.8 |
| 20260901210741 | 12 | 295 | 4.8 | 11.3 | 0.00 | 0.00 | 0.00 | 100 | 906.0 |
| 20260901210626 | 12 | 294 | 4.8 | 11.3 | 0.00 | 0.00 | 0.00 | 100 | 906.1 |
| 20260901210534 | 12 | 292 | 4.8 | 11.3 | 0.00 | 0.00 | 0.00 | 100 | 906.1 |
| 20260901210417 | 12 | 288 | 4.8 | 9.7 | 0.00 | 0.00 | 0.00 | 100 | 906.6 |
| 20260901210323 | 12 | 288 | 6.4 | 11.3 | 0.00 | 0.00 | 0.00 | 100 | 906.6 |
| 20260901210209 | 12 | 291 | 6.4 | 9.7 | 0.00 | 0.00 | 0.00 | 100 | 907.2 |
| 20260901210104 | 12 | 290 | 6.4 | 9.7 | 0.00 | 0.00 | 0.00 | 100 | 912.3 |
| 20260901205959 | 12 | 291 | 6.4 | 9.7 | 0.00 | 0.00 | 0.00 | 100 | 906.3 |
| 20260901205905 | 12 | 287 | 6.4 | 9.7 | 0.00 | 0.00 | 0.00 | 100 | 906.3 |
| 20260901205751 | 12 | 289 | 4.8 | 9.7 | 0.00 | 0.00 | 0.00 | 100 | 906.2 |
| 20260901205657 | 12 | 286 | 4.8 | 9.7 | 0.00 | 0.00 | 0.00 | 100 | 906.1 |
| 20260901205542 | 12 | 283 | 4.8 | 9.7 | 0.00 | 0.00 | 0.00 | 100 | 906.2 |
| 20260901205448 | 12 | 279 | 4.8 | 9.7 | 0.00 | 0.00 | 0.00 | 100 | 906.1 |
| 20260901205333 | 12 | 274 | 4.8 | 9.7 | 0.00 | 0.00 | 0.00 | 100 | 906.1 |
| 20260901205240 | 12 | 271 | 4.8 | 8.0 | 0.00 | 0.00 | 0.00 | 100 | 906.2 |
| 20260901205125 | 12 | 275 | 3.2 | 8.0 | 0.00 | 0.00 | 0.00 | 100 | 906.7 |
| 20260901205031 | 12 | 276 | 3.2 | 8.0 | 0.00 | 0.00 | 0.00 | 100 | 906.7 |
| 20260901205020 | 12 | 276 | 3.2 | 8.0 | 0.00 | 0.00 | 0.00 | 100 | 909.7 |
| 20260901204926 | 12 | 274 | 3.2 | 8.0 | 0.00 | 0.00 | 0.00 | 100 | 909.7 |
| 20260901204832 | 12 | 273 | 3.2 | 8.0 | 0.00 | 0.00 | 0.00 | 100 | 910.2 |
| 20260901204718 | 12 | 266 | 3.2 | 8.0 | 0.00 | 0.00 | 0.00 | 100 | 906.3 |
| 20260901204624 | 12 | 259 | 3.2 | 6.4 | 0.00 | 0.00 | 0.00 | 100 | 906.2 |
| 20260901204509 | 12 | 257 | 3.2 | 6.4 | 0.00 | 0.00 | 0.00 | 100 | 906.2 |
| 20260901204415 | 12 | 256 | 3.2 | 6.4 | 0.00 | 0.00 | 0.00 | 100 | 906.1 |
| 20260901204300 | 12 | 259 | 3.2 | 6.4 | 0.00 | 0.00 | 0.00 | 100 | 906.1 |
| 20260901204206 | 12 | 264 | 3.2 | 6.4 | 0.00 | 0.00 | 0.00 | 100 | 906.2 |
| 20260901204052 | 12 | 259 | 1.6 | 4.8 | 0.00 | 0.00 | 0.00 | 100 | 906.2 |
| 20260901203958 | 12 | 251 | 1.6 | 6.4 | 0.00 | 0.00 | 0.00 | 100 | 906.2 |
| 20260901203948 | 12 | 251 | 1.6 | 6.4 | 0.00 | 0.00 | 0.00 | 100 | 906.0 |
| 20260901203842 | 12 | 241 | 1.6 | 6.4 | 0.00 | 0.00 | 0.00 | 100 | 906.0 |